Wetterdaten: Freitag, 06.12.2019
Datum Zeit Temp. Aussen Temp. o. S. Temp +5cm Feuchte Auss Luftdruck Regen Sonnenschein Regendauer Solar Windben Empfang
06.12.2019 00:00 0,7 C 0,0 C -0,6 C 96 % 1018,7 hPa 0,0 l/m 0 min 0 min 0 W/m 16,1 km/h (3 Bft) 97,87 %
06.12.2019 00:02 0,7 C 0,0 C -0,6 C 96 % 1018,8 hPa 0,0 l/m 0 min 0 min 0 W/m 16,1 km/h (3 Bft) 9,52 %
06.12.2019 00:04 0,7 C 0,0 C -0,6 C 96 % 1018,7 hPa 0,0 l/m 0 min 0 min 0 W/m 19,3 km/h (3 Bft) 95,65 %
06.12.2019 00:07 0,7 C 0,0 C -0,6 C 95 % 1018,6 hPa 0,0 l/m 0 min 0 min 0 W/m 12,9 km/h (3 Bft) 100,00 %
06.12.2019 00:08 0,6 C 0,0 C -0,6 C 96 % 1018,6 hPa 0,0 l/m 0 min 0 min 0 W/m 16,1 km/h (3 Bft) 100,00 %
06.12.2019 00:10 0,7 C 0,0 C -0,6 C 96 % 1018,5 hPa 0,0 l/m 0 min 0 min 0 W/m 16,1 km/h (3 Bft) 95,74 %
06.12.2019 00:12 0,6 C 0,0 C -0,6 C 95 % 1018,5 hPa 0,0 l/m 0 min 0 min 0 W/m 16,1 km/h (3 Bft) 95,74 %
06.12.2019 00:14 0,6 C 0,0 C -0,6 C 95 % 1018,5 hPa 0,0 l/m 0 min 0 min 0 W/m 16,1 km/h (3 Bft) 95,74 %
06.12.2019 00:16 0,6 C 0,0 C -0,6 C 95 % 1018,4 hPa 0,0 l/m 0 min 0 min 0 W/m 19,3 km/h (3 Bft) 97,87 %
06.12.2019 00:18 0,6 C 0,0 C -0,6 C 95 % 1018,4 hPa 0,0 l/m 0 min 0 min 0 W/m 16,1 km/h (3 Bft) 93,62 %
06.12.2019 00:20 0,6 C 0,0 C -0,6 C 95 % 1018,4 hPa 0,0 l/m 0 min 0 min 0 W/m 19,3 km/h (3 Bft) 93,48 %
06.12.2019 00:22 0,6 C 0,0 C -0,6 C 95 % 1018,5 hPa 0,0 l/m 0 min 0 min 0 W/m 16,1 km/h (3 Bft) 95,74 %
06.12.2019 00:24 0,6 C 0,0 C -0,6 C 95 % 1018,4 hPa 0,0 l/m 0 min 0 min 0 W/m 16,1 km/h (3 Bft) 95,74 %
06.12.2019 00:26 0,6 C 0,0 C -0,6 C 95 % 1018,4 hPa 0,0 l/m 0 min 0 min 0 W/m 19,3 km/h (3 Bft) 95,74 %
06.12.2019 00:28 0,6 C 0,0 C -0,6 C 95 % 1018,3 hPa 0,0 l/m 0 min 0 min 0 W/m 16,1 km/h (3 Bft) 61,70 %
06.12.2019 00:30 0,6 C 0,0 C -0,6 C 95 % 1018,3 hPa 0,0 l/m 0 min 0 min 0 W/m 12,9 km/h (3 Bft) 90,00 %
06.12.2019 00:32 0,6 C 0,0 C -0,6 C 95 % 1018,1 hPa 0,0 l/m 0 min 0 min 0 W/m 16,1 km/h (3 Bft) 95,74 %
06.12.2019 00:34 0,5 C 0,0 C -0,6 C 95 % 1018,1 hPa 0,0 l/m 0 min 0 min 0 W/m 19,3 km/h (3 Bft) 95,74 %
06.12.2019 00:36 0,5 C 0,0 C -0,6 C 95 % 1018,0 hPa 0,0 l/m 0 min 0 min 0 W/m 16,1 km/h (3 Bft) 95,74 %
06.12.2019 00:38 0,5 C 0,0 C -0,6 C 95 % 1018,0 hPa 0,0 l/m 0 min 0 min 0 W/m 19,3 km/h (3 Bft) 95,74 %
06.12.2019 00:40 0,4 C 0,0 C -0,6 C 95 % 1018,0 hPa 0,0 l/m 0 min 0 min 0 W/m 22,5 km/h (4 Bft) 97,87 %
06.12.2019 00:42 0,4 C 0,0 C -0,6 C 95 % 1017,9 hPa 0,0 l/m 0 min 0 min 0 W/m 19,3 km/h (3 Bft) 93,48 %
06.12.2019 00:44 0,4 C 0,0 C -0,6 C 95 % 1018,0 hPa 0,0 l/m 0 min 0 min 0 W/m 12,9 km/h (3 Bft) 95,74 %
06.12.2019 00:46 0,4 C 0,0 C -0,6 C 95 % 1017,9 hPa 0,0 l/m 0 min 0 min 0 W/m 19,3 km/h (3 Bft) 93,62 %
06.12.2019 00:48 0,4 C 0,0 C -0,6 C 95 % 1017,9 hPa 0,0 l/m 0 min 0 min 0 W/m 19,3 km/h (3 Bft) 95,74 %
06.12.2019 00:50 0,4 C 0,0 C -0,6 C 95 % 1017,9 hPa 0,0 l/m 0 min 0 min 0 W/m 25,7 km/h (4 Bft) 93,62 %
06.12.2019 00:52 0,4 C 0,0 C -0,6 C 95 % 1017,9 hPa 0,0 l/m 0 min 0 min 0 W/m 16,1 km/h (3 Bft) 95,65 %
06.12.2019 00:54 0,4 C 0,0 C -0,6 C 95 % 1017,9 hPa 0,0 l/m 0 min 0 min 0 W/m 22,5 km/h (4 Bft) 95,74 %
06.12.2019 00:56 0,4 C 0,0 C -0,6 C 95 % 1017,8 hPa 0,0 l/m 0 min 0 min 0 W/m 19,3 km/h (3 Bft) 95,74 %
06.12.2019 00:58 0,4 C 0,0 C -0,6 C 95 % 1017,8 hPa 0,0 l/m 0 min 0 min 0 W/m 19,3 km/h (3 Bft) 95,74 %
06.12.2019 01:00 0,4 C 0,0 C -0,6 C 95 % 1017,8 hPa 0,0 l/m 0 min 0 min 0 W/m 16,1 km/h (3 Bft) 97,87 %
06.12.2019 01:02 0,4 C 0,0 C -0,6 C 94 % 1017,8 hPa 0,0 l/m 0 min 0 min 0 W/m 19,3 km/h (3 Bft) 95,74 %
06.12.2019 01:04 0,4 C 0,0 C -0,6 C 94 % 1017,8 hPa 0,0 l/m 0 min 0 min 0 W/m 12,9 km/h (3 Bft) 95,65 %
06.12.2019 01:06 0,4 C 0,0 C -0,6 C 94 % 1017,7 hPa 0,0 l/m 0 min 0 min 0 W/m 12,9 km/h (3 Bft) 95,74 %
06.12.2019 01:08 0,5 C 0,0 C -0,6 C 94 % 1017,7 hPa 0,0 l/m 0 min 0 min 0 W/m 22,5 km/h (4 Bft) 95,74 %
06.12.2019 01:10 0,5 C 0,6 C 0,0 C 94 % 1017,8 hPa 0,0 l/m 0 min 0 min 0 W/m 6,4 km/h (2 Bft) 93,62 %
06.12.2019 01:12 0,6 C 0,6 C 0,0 C 95 % 1017,6 hPa 0,0 l/m 0 min 0 min 0 W/m 16,1 km/h (3 Bft) 95,74 %
06.12.2019 01:14 0,6 C 0,6 C 0,0 C 95 % 1017,6 hPa 0,0 l/m 0 min 0 min 0 W/m 16,1 km/h (3 Bft) 95,74 %
06.12.2019 01:16 0,6 C 0,6 C 0,0 C 95 % 1017,6 hPa 0,0 l/m 0 min 0 min 0 W/m 12,9 km/h (3 Bft) 53,49 %
06.12.2019 01:18 0,6 C 0,6 C 0,0 C 95 % 1017,6 hPa 0,0 l/m 0 min 0 min 0 W/m 12,9 km/h (3 Bft) 97,87 %
06.12.2019 01:20 0,6 C 0,6 C 0,0 C 95 % 1017,4 hPa 0,0 l/m 0 min 0 min 0 W/m 16,1 km/h (3 Bft) 97,87 %
06.12.2019 01:22 0,6 C 0,6 C 0,0 C 94 % 1017,4 hPa 0,0 l/m 0 min 0 min 0 W/m 6,4 km/h (2 Bft) 97,87 %
06.12.2019 01:24 0,6 C 0,6 C 0,0 C 94 % 1017,4 hPa 0,0 l/m 0 min 0 min 0 W/m 16,1 km/h (3 Bft) 95,74 %
06.12.2019 01:26 0,6 C 0,6 C 0,0 C 94 % 1017,1 hPa 0,0 l/m 0 min 0 min 0 W/m 19,3 km/h (3 Bft) 93,62 %
06.12.2019 01:28 0,6 C 0,0 C 0,0 C 94 % 1017,2 hPa 0,0 l/m 0 min 0 min 0 W/m 16,1 km/h (3 Bft) 97,83 %
06.12.2019 01:30 0,6 C 0,0 C -0,6 C 94 % 1017,0 hPa 0,0 l/m 0 min 0 min 0 W/m 16,1 km/h (3 Bft) 93,62 %
06.12.2019 01:32 0,6 C 0,0 C -0,6 C 94 % 1017,0 hPa 0,0 l/m 0 min 0 min 0 W/m 19,3 km/h (3 Bft) 97,87 %
06.12.2019 01:34 0,6 C 0,0 C -0,6 C 94 % 1016,9 hPa 0,0 l/m 0 min 0 min 0 W/m 16,1 km/h (3 Bft) 97,87 %
06.12.2019 01:36 0,6 C 0,0 C -0,6 C 94 % 1016,9 hPa 0,0 l/m 0 min 0 min 0 W/m 12,9 km/h (3 Bft) 95,74 %
06.12.2019 01:38 0,6 C 0,0 C -0,6 C 94 % 1016,9 hPa 0,0 l/m 0 min 0 min 0 W/m 12,9 km/h (3 Bft) 97,83 %
06.12.2019 01:40 0,6 C 0,0 C -0,6 C 94 % 1016,9 hPa 0,0 l/m 0 min 0 min 0 W/m 16,1 km/h (3 Bft) 97,87 %
06.12.2019 01:42 0,6 C 0,0 C -0,6 C 94 % 1016,9 hPa 0,0 l/m 0 min 0 min 0 W/m 6,4 km/h (2 Bft) 93,62 %
06.12.2019 01:44 0,6 C 0,0 C -0,6 C 94 % 1016,8 hPa 0,0 l/m 0 min 0 min 0 W/m 19,3 km/h (3 Bft) 95,74 %
06.12.2019 01:46 0,6 C 0,0 C -0,6 C 94 % 1016,8 hPa 0,0 l/m 0 min 0 min 0 W/m 19,3 km/h (3 Bft) 100,00 %
06.12.2019 01:48 0,6 C 0,0 C -0,6 C 94 % 1016,7 hPa 0,0 l/m 0 min 0 min 0 W/m 19,3 km/h (3 Bft) 100,00 %
06.12.2019 01:50 0,6 C 0,0 C -0,6 C 94 % 1016,7 hPa 0,0 l/m 0 min 0 min 0 W/m 19,3 km/h (3 Bft) 100,00 %
06.12.2019 01:52 0,6 C 0,0 C -0,6 C 94 % 1016,7 hPa 0,0 l/m 0 min 0 min 0 W/m 22,5 km/h (4 Bft) 100,00 %
06.12.2019 01:54 0,6 C 0,0 C -0,6 C 94 % 1016,7 hPa 0,0 l/m 0 min 0 min 0 W/m 12,9 km/h (3 Bft) 97,87 %
06.12.2019 01:56 0,6 C 0,0 C -0,6 C 93 % 1016,7 hPa 0,0 l/m 0 min 0 min 0 W/m 19,3 km/h (3 Bft) 97,87 %
06.12.2019 01:58 0,6 C 0,0 C -0,6 C 94 % 1016,6 hPa 0,0 l/m 0 min 0 min 0 W/m 16,1 km/h (3 Bft) 95,74 %
06.12.2019 02:00 0,6 C 0,0 C -0,6 C 94 % 1016,6 hPa 0,0 l/m 0 min 0 min 0 W/m 6,4 km/h (2 Bft) 100,00 %
06.12.2019 02:02 0,6 C 0,0 C 0,0 C 94 % 1016,6 hPa 0,0 l/m 0 min 0 min 0 W/m 19,3 km/h (3 Bft) 97,83 %
06.12.2019 02:04 0,6 C 0,6 C 0,0 C 94 % 1016,6 hPa 0,0 l/m 0 min 0 min 0 W/m 16,1 km/h (3 Bft) 97,87 %
06.12.2019 02:06 0,7 C 0,6 C 0,0 C 94 % 1016,6 hPa 0,0 l/m 0 min 0 min 0 W/m 19,3 km/h (3 Bft) 97,87 %
06.12.2019 02:08 0,7 C 0,6 C 0,0 C 94 % 1016,6 hPa 0,0 l/m 0 min 0 min 0 W/m 19,3 km/h (3 Bft) 100,00 %
06.12.2019 02:10 0,7 C 0,6 C 0,0 C 94 % 1016,5 hPa 0,0 l/m 0 min 0 min 0 W/m 22,5 km/h (4 Bft) 100,00 %
06.12.2019 02:12 0,8 C 0,6 C 0,0 C 94 % 1016,5 hPa 0,0 l/m 0 min 0 min 0 W/m 16,1 km/h (3 Bft) 100,00 %
06.12.2019 02:14 0,8 C 0,6 C 0,0 C 94 % 1016,5 hPa 0,0 l/m 0 min 0 min 0 W/m 25,7 km/h (4 Bft) 97,83 %
06.12.2019 02:16 0,8 C 0,6 C 0,0 C 94 % 1016,5 hPa 0,0 l/m 0 min 0 min 0 W/m 16,1 km/h (3 Bft) 100,00 %
06.12.2019 02:18 0,9 C 0,6 C 0,0 C 94 % 1016,5 hPa 0,0 l/m 0 min 0 min 0 W/m 19,3 km/h (3 Bft) 100,00 %
06.12.2019 02:20 0,9 C 0,6 C 0,0 C 94 % 1016,5 hPa 0,0 l/m 0 min 0 min 0 W/m 19,3 km/h (3 Bft) 95,74 %
06.12.2019 02:22 0,9 C 0,6 C 0,0 C 94 % 1016,4 hPa 0,0 l/m 0 min 0 min 0 W/m 16,1 km/h (3 Bft) 100,00 %
06.12.2019 02:24 0,9 C 0,6 C 0,0 C 94 % 1016,5 hPa 0,0 l/m 0 min 0 min 0 W/m 16,1 km/h (3 Bft) 100,00 %
06.12.2019 02:26 1,0 C 0,6 C 0,0 C 94 % 1016,5 hPa 0,0 l/m 0 min 0 min 0 W/m 16,1 km/h (3 Bft) 100,00 %
06.12.2019 02:28 1,0 C 0,6 C 0,0 C 94 % 1016,4 hPa 0,0 l/m 0 min 0 min 0 W/m 12,9 km/h (3 Bft) 100,00 %
06.12.2019 02:30 1,1 C 0,6 C 0,0 C 94 % 1016,4 hPa 0,0 l/m 0 min 0 min 0 W/m 16,1 km/h (3 Bft) 100,00 %
06.12.2019 02:32 1,1 C 0,6 C 0,0 C 94 % 1016,4 hPa 0,0 l/m 0 min 0 min 0 W/m 19,3 km/h (3 Bft) 100,00 %
06.12.2019 02:34 1,1 C 0,6 C 0,0 C 94 % 1016,4 hPa 0,0 l/m 0 min 0 min 0 W/m 19,3 km/h (3 Bft) 100,00 %
06.12.2019 02:36 1,1 C 0,6 C 0,0 C 94 % 1016,5 hPa 0,0 l/m 0 min 0 min 0 W/m 19,3 km/h (3 Bft) 100,00 %
06.12.2019 02:38 1,1 C 0,6 C 0,0 C 94 % 1016,5 hPa 0,0 l/m 0 min 0 min 0 W/m 16,1 km/h (3 Bft) 95,74 %
06.12.2019 02:40 1,1 C 0,6 C 0,0 C 94 % 1016,5 hPa 0,0 l/m 0 min 0 min 0 W/m 12,9 km/h (3 Bft) 100,00 %
06.12.2019 02:42 1,1 C 0,6 C 0,0 C 94 % 1016,4 hPa 0,0 l/m 0 min 0 min 0 W/m 12,9 km/h (3 Bft) 100,00 %
06.12.2019 02:44 1,1 C 0,6 C 0,0 C 94 % 1016,4 hPa 0,0 l/m 0 min 0 min 0 W/m 19,3 km/h (3 Bft) 100,00 %
06.12.2019 02:46 1,2 C 1,1 C 0,0 C 94 % 1016,4 hPa 0,0 l/m 0 min 0 min 0 W/m 22,5 km/h (4 Bft) 100,00 %
06.12.2019 02:48 1,2 C 1,1 C 0,6 C 94 % 1016,4 hPa 0,0 l/m 0 min 0 min 0 W/m 16,1 km/h (3 Bft) 97,83 %
06.12.2019 02:50 1,2 C 1,1 C 0,6 C 94 % 1016,4 hPa 0,0 l/m 0 min 0 min 0 W/m 12,9 km/h (3 Bft) 100,00 %
06.12.2019 02:52 1,3 C 1,1 C 0,6 C 94 % 1016,4 hPa 0,0 l/m 0 min 0 min 0 W/m 16,1 km/h (3 Bft) 97,87 %
06.12.2019 02:54 1,3 C 1,1 C 0,6 C 94 % 1016,3 hPa 0,0 l/m 0 min 0 min 0 W/m 16,1 km/h (3 Bft) 47,50 %
06.12.2019 02:56 1,3 C 1,1 C 0,6 C 94 % 1016,3 hPa 0,0 l/m 0 min 0 min 0 W/m 22,5 km/h (4 Bft) 97,87 %
06.12.2019 02:58 1,3 C 1,1 C 0,6 C 94 % 1016,3 hPa 0,0 l/m 0 min 0 min 0 W/m 16,1 km/h (3 Bft) 97,87 %
06.12.2019 03:00 1,4 C 1,1 C 0,6 C 94 % 1016,3 hPa 0,0 l/m 0 min 0 min 0 W/m 12,9 km/h (3 Bft) 97,83 %
06.12.2019 03:02 1,4 C 1,1 C 0,6 C 94 % 1016,4 hPa 0,0 l/m 0 min 0 min 0 W/m 19,3 km/h (3 Bft) 97,87 %
06.12.2019 03:04 1,4 C 1,1 C 0,6 C 94 % 1016,4 hPa 0,0 l/m 0 min 0 min 0 W/m 16,1 km/h (3 Bft) 95,74 %
06.12.2019 03:06 1,5 C 1,1 C 0,6 C 94 % 1016,3 hPa 0,0 l/m 0 min 0 min 0 W/m 12,9 km/h (3 Bft) 97,87 %
06.12.2019 03:08 1,5 C 1,1 C 0,6 C 94 % 1016,3 hPa 0,0 l/m 0 min 0 min 0 W/m 16,1 km/h (3 Bft) 97,87 %
06.12.2019 03:10 1,6 C 1,1 C 0,6 C 94 % 1016,2 hPa 0,0 l/m 0 min 0 min 0 W/m 19,3 km/h (3 Bft) 95,74 %
06.12.2019 03:12 1,6 C 1,1 C 0,6 C 94 % 1016,2 hPa 0,0 l/m 0 min 0 min 0 W/m 12,9 km/h (3 Bft) 97,83 %
06.12.2019 03:14 1,6 C 1,1 C 0,6 C 94 % 1016,2 hPa 0,0 l/m 0 min 0 min 0 W/m 12,9 km/h (3 Bft) 97,87 %
06.12.2019 03:16 1,6 C 1,1 C 0,6 C 94 % 1016,1 hPa 0,0 l/m 0 min 0 min 0 W/m 12,9 km/h (3 Bft) 97,87 %
06.12.2019 03:18 1,7 C 1,1 C 0,6 C 94 % 1016,1 hPa 0,0 l/m 0 min 0 min 0 W/m 16,1 km/h (3 Bft) 97,87 %
06.12.2019 03:20 1,7 C 1,1 C 0,6 C 94 % 1016,1 hPa 0,0 l/m 0 min 0 min 0 W/m 16,1 km/h (3 Bft) 97,87 %
06.12.2019 03:22 1,7 C 1,1 C 0,6 C 94 % 1016,1 hPa 0,0 l/m 0 min 0 min 0 W/m 19,3 km/h (3 Bft) 97,87 %
06.12.2019 03:24 1,7 C 1,1 C 0,6 C 94 % 1016,1 hPa 0,0 l/m 0 min 0 min 0 W/m 19,3 km/h (3 Bft) 97,83 %
06.12.2019 03:26 1,7 C 1,1 C 0,6 C 94 % 1016,1 hPa 0,0 l/m 0 min 0 min 0 W/m 12,9 km/h (3 Bft) 95,74 %
06.12.2019 03:28 1,7 C 1,1 C 0,6 C 94 % 1016,0 hPa 0,0 l/m 0 min 0 min 0 W/m 12,9 km/h (3 Bft) 95,74 %
06.12.2019 03:30 1,7 C 0,6 C 0,6 C 94 % 1015,9 hPa 0,0 l/m 0 min 0 min 0 W/m 16,1 km/h (3 Bft) 95,74 %
06.12.2019 03:32 1,6 C 0,6 C 0,0 C 94 % 1015,9 hPa 0,0 l/m 0 min 0 min 0 W/m 16,1 km/h (3 Bft) 97,87 %
06.12.2019 03:34 1,6 C 0,6 C 0,0 C 94 % 1015,9 hPa 0,0 l/m 0 min 0 min 0 W/m 6,4 km/h (2 Bft) 97,87 %
06.12.2019 03:36 1,6 C 0,6 C 0,0 C 93 % 1015,9 hPa 0,0 l/m 0 min 0 min 0 W/m 12,9 km/h (3 Bft) 97,83 %
06.12.2019 03:38 1,5 C 0,6 C 0,0 C 93 % 1016,0 hPa 0,0 l/m 0 min 0 min 0 W/m 6,4 km/h (2 Bft) 97,87 %
06.12.2019 03:40 1,5 C 0,6 C 0,0 C 93 % 1015,9 hPa 0,0 l/m 0 min 0 min 0 W/m 12,9 km/h (3 Bft) 97,87 %
06.12.2019 03:42 1,4 C 0,6 C 0,0 C 93 % 1015,9 hPa 0,0 l/m 0 min 0 min 0 W/m 16,1 km/h (3 Bft) 97,87 %
06.12.2019 03:44 1,4 C 0,6 C 0,0 C 93 % 1015,8 hPa 0,0 l/m 0 min 0 min 0 W/m 6,4 km/h (2 Bft) 93,62 %
06.12.2019 03:46 1,4 C 0,6 C 0,6 C 93 % 1015,8 hPa 0,0 l/m 0 min 0 min 0 W/m 16,1 km/h (3 Bft) 95,65 %
06.12.2019 03:48 1,4 C 0,6 C 0,0 C 93 % 1015,7 hPa 0,0 l/m 0 min 0 min 0 W/m 12,9 km/h (3 Bft) 95,74 %
06.12.2019 03:50 1,4 C 0,6 C 0,0 C 93 % 1015,7 hPa 0,0 l/m 0 min 0 min 0 W/m 19,3 km/h (3 Bft) 93,62 %
06.12.2019 03:52 1,4 C 0,6 C 0,0 C 93 % 1015,7 hPa 0,0 l/m 0 min 0 min 0 W/m 16,1 km/h (3 Bft) 95,74 %
06.12.2019 03:54 1,3 C 0,6 C 0,0 C 93 % 1015,6 hPa 0,0 l/m 0 min 0 min 0 W/m 19,3 km/h (3 Bft) 95,74 %
06.12.2019 03:56 1,3 C 0,6 C 0,0 C 93 % 1015,6 hPa 0,0 l/m 0 min 0 min 0 W/m 16,1 km/h (3 Bft) 93,62 %
06.12.2019 03:58 1,3 C 0,6 C 0,0 C 93 % 1015,6 hPa 0,0 l/m 0 min 0 min 0 W/m 19,3 km/h (3 Bft) 95,65 %
06.12.2019 04:00 1,3 C 0,6 C 0,0 C 93 % 1015,5 hPa 0,0 l/m 0 min 0 min 0 W/m 16,1 km/h (3 Bft) 95,74 %
06.12.2019 04:02 1,3 C 0,6 C 0,0 C 93 % 1015,5 hPa 0,0 l/m 0 min 0 min 0 W/m 12,9 km/h (3 Bft) 88,89 %
06.12.2019 04:04 1,3 C 0,6 C 0,0 C 93 % 1015,4 hPa 0,0 l/m 0 min 0 min 0 W/m 12,9 km/h (3 Bft) 97,87 %
06.12.2019 04:06 1,3 C 0,6 C 0,0 C 93 % 1015,4 hPa 0,0 l/m 0 min 0 min 0 W/m 16,1 km/h (3 Bft) 95,74 %
06.12.2019 04:08 1,3 C 0,6 C 0,6 C 93 % 1015,4 hPa 0,0 l/m 0 min 0 min 0 W/m 16,1 km/h (3 Bft) 97,87 %
06.12.2019 04:10 1,3 C 0,6 C 0,6 C 93 % 1015,4 hPa 0,0 l/m 0 min 0 min 0 W/m 16,1 km/h (3 Bft) 95,65 %
06.12.2019 04:12 1,3 C 0,6 C 0,6 C 93 % 1015,4 hPa 0,0 l/m 0 min 0 min 0 W/m 16,1 km/h (3 Bft) 95,74 %
06.12.2019 04:14 1,3 C 0,6 C 0,6 C 93 % 1015,3 hPa 0,0 l/m 0 min 0 min 0 W/m 16,1 km/h (3 Bft) 95,74 %
06.12.2019 04:16 1,3 C 0,6 C 0,6 C 93 % 1015,3 hPa 0,0 l/m 0 min 0 min 0 W/m 25,7 km/h (4 Bft) 95,74 %
06.12.2019 04:18 1,3 C 0,6 C 0,6 C 93 % 1015,3 hPa 0,0 l/m 0 min 2 min 0 W/m 12,9 km/h (3 Bft) 91,49 %
06.12.2019 04:20 1,3 C 0,6 C 0,6 C 93 % 1015,4 hPa 0,0 l/m 0 min 2 min 0 W/m 16,1 km/h (3 Bft) 97,87 %
06.12.2019 04:22 1,3 C 0,6 C 0,6 C 93 % 1015,3 hPa 0,0 l/m 0 min 0 min 0 W/m 12,9 km/h (3 Bft) 97,83 %
06.12.2019 04:24 1,3 C 0,6 C 0,6 C 93 % 1015,4 hPa 0,0 l/m 0 min 0 min 0 W/m 6,4 km/h (2 Bft) 97,87 %
06.12.2019 04:26 1,3 C 0,6 C 0,6 C 93 % 1015,4 hPa 0,0 l/m 0 min 0 min 0 W/m 16,1 km/h (3 Bft) 95,74 %
06.12.2019 04:28 1,3 C 0,6 C 0,6 C 93 % 1015,3 hPa 0,0 l/m 0 min 0 min 0 W/m 22,5 km/h (4 Bft) 97,87 %
06.12.2019 04:30 1,3 C 0,6 C 0,6 C 93 % 1015,3 hPa 0,0 l/m 0 min 0 min 0 W/m 19,3 km/h (3 Bft) 97,87 %
06.12.2019 04:32 1,3 C 0,6 C 0,6 C 93 % 1015,3 hPa 0,0 l/m 0 min 0 min 0 W/m 16,1 km/h (3 Bft) 95,74 %
06.12.2019 04:34 1,3 C 0,6 C 0,6 C 93 % 1015,3 hPa 0,0 l/m 0 min 0 min 0 W/m 16,1 km/h (3 Bft) 97,83 %
06.12.2019 04:36 1,3 C 0,6 C 0,6 C 93 % 1015,3 hPa 0,0 l/m 0 min 0 min 0 W/m 12,9 km/h (3 Bft) 97,87 %
06.12.2019 04:38 1,3 C 0,6 C 0,6 C 93 % 1015,3 hPa 0,0 l/m 0 min 0 min 0 W/m 12,9 km/h (3 Bft) 93,62 %
06.12.2019 04:40 1,3 C 0,6 C 0,6 C 93 % 1015,3 hPa 0,0 l/m 0 min 0 min 0 W/m 12,9 km/h (3 Bft) 97,87 %
06.12.2019 04:42 1,3 C 0,6 C 0,6 C 93 % 1015,2 hPa 0,0 l/m 0 min 0 min 0 W/m 12,9 km/h (3 Bft) 54,55 %
06.12.2019 04:44 1,3 C 0,6 C 0,6 C 93 % 1015,2 hPa 0,0 l/m 0 min 0 min 0 W/m 6,4 km/h (2 Bft) 100,00 %
06.12.2019 04:46 1,3 C 0,6 C 0,6 C 93 % 1015,2 hPa 0,0 l/m 0 min 0 min 0 W/m 16,1 km/h (3 Bft) 100,00 %
06.12.2019 04:48 1,3 C 0,6 C 0,6 C 93 % 1015,2 hPa 0,0 l/m 0 min 0 min 0 W/m 19,3 km/h (3 Bft) 97,87 %
06.12.2019 04:50 1,3 C 0,6 C 0,6 C 93 % 1015,2 hPa 0,0 l/m 0 min 0 min 0 W/m 12,9 km/h (3 Bft) 100,00 %
06.12.2019 04:52 1,3 C 0,6 C 0,6 C 93 % 1015,2 hPa 0,0 l/m 0 min 0 min 0 W/m 16,1 km/h (3 Bft) 97,87 %
06.12.2019 04:54 1,3 C 0,6 C 0,6 C 93 % 1015,1 hPa 0,0 l/m 0 min 0 min 0 W/m 16,1 km/h (3 Bft) 100,00 %
06.12.2019 04:56 1,3 C 0,6 C 0,6 C 93 % 1015,1 hPa 0,0 l/m 0 min 0 min 0 W/m 16,1 km/h (3 Bft) 97,83 %
06.12.2019 04:58 1,3 C 0,6 C 0,6 C 93 % 1015,1 hPa 0,0 l/m 0 min 0 min 0 W/m 16,1 km/h (3 Bft) 97,87 %
06.12.2019 05:00 1,3 C 0,6 C 0,6 C 93 % 1015,1 hPa 0,0 l/m 0 min 0 min 0 W/m 16,1 km/h (3 Bft) 97,87 %
06.12.2019 05:02 1,3 C 0,6 C 0,6 C 93 % 1015,1 hPa 0,0 l/m 0 min 0 min 0 W/m 6,4 km/h (2 Bft) 100,00 %
06.12.2019 05:04 1,3 C 0,6 C 0,0 C 93 % 1015,1 hPa 0,0 l/m 0 min 0 min 0 W/m 12,9 km/h (3 Bft) 100,00 %
06.12.2019 05:06 1,3 C 0,6 C 0,0 C 93 % 1015,1 hPa 0,0 l/m 0 min 0 min 0 W/m 6,4 km/h (2 Bft) 100,00 %
06.12.2019 05:08 1,3 C 0,6 C 0,0 C 93 % 1015,1 hPa 0,0 l/m 0 min 0 min 0 W/m 12,9 km/h (3 Bft) 100,00 %
06.12.2019 05:10 1,3 C 0,6 C 0,0 C 93 % 1015,1 hPa 0,0 l/m 0 min 0 min 0 W/m 19,3 km/h (3 Bft) 97,87 %
06.12.2019 05:12 1,3 C 0,6 C 0,0 C 93 % 1015,1 hPa 0,0 l/m 0 min 0 min 0 W/m 16,1 km/h (3 Bft) 100,00 %
06.12.2019 05:14 1,3 C 0,6 C 0,6 C 93 % 1015,1 hPa 0,0 l/m 0 min 0 min 0 W/m 12,9 km/h (3 Bft) 97,87 %
06.12.2019 05:16 1,3 C 0,6 C 0,6 C 93 % 1015,1 hPa 0,0 l/m 0 min 0 min 0 W/m 12,9 km/h (3 Bft) 100,00 %
06.12.2019 05:18 1,3 C 0,6 C 0,6 C 93 % 1015,1 hPa 0,0 l/m 0 min 0 min 0 W/m 16,1 km/h (3 Bft) 100,00 %
06.12.2019 05:20 1,3 C 0,6 C 0,6 C 93 % 1015,1 hPa 0,0 l/m 0 min 0 min 0 W/m 16,1 km/h (3 Bft) 100,00 %
06.12.2019 05:22 1,3 C 1,1 C 0,6 C 93 % 1015,1 hPa 0,0 l/m 0 min 0 min 0 W/m 16,1 km/h (3 Bft) 97,87 %
06.12.2019 05:24 1,3 C 0,6 C 0,6 C 93 % 1015,1 hPa 0,0 l/m 0 min 0 min 0 W/m 16,1 km/h (3 Bft) 97,87 %
06.12.2019 05:26 1,3 C 0,6 C 0,6 C 93 % 1015,1 hPa 0,0 l/m 0 min 0 min 0 W/m 6,4 km/h (2 Bft) 95,74 %
06.12.2019 05:28 1,3 C 1,1 C 0,6 C 93 % 1015,0 hPa 0,0 l/m 0 min 0 min 0 W/m 16,1 km/h (3 Bft) 100,00 %
06.12.2019 05:30 1,3 C 0,6 C 0,6 C 93 % 1015,1 hPa 0,0 l/m 0 min 0 min 0 W/m 16,1 km/h (3 Bft) 100,00 %
06.12.2019 05:32 1,3 C 0,6 C 0,6 C 93 % 1015,0 hPa 0,0 l/m 0 min 0 min 0 W/m 19,3 km/h (3 Bft) 97,87 %
06.12.2019 05:34 1,3 C 0,6 C 0,6 C 93 % 1015,0 hPa 0,0 l/m 0 min 0 min 0 W/m 22,5 km/h (4 Bft) 97,87 %
06.12.2019 05:36 1,3 C 0,6 C 0,6 C 93 % 1015,0 hPa 0,0 l/m 0 min 2 min 0 W/m 19,3 km/h (3 Bft) 97,87 %
06.12.2019 05:38 1,3 C 0,6 C 0,6 C 93 % 1015,0 hPa 0,0 l/m 0 min 0 min 0 W/m 19,3 km/h (3 Bft) 97,87 %
06.12.2019 05:40 1,3 C 0,6 C 0,0 C 93 % 1015,0 hPa 0,0 l/m 0 min 2 min 0 W/m 16,1 km/h (3 Bft) 97,87 %
06.12.2019 05:42 1,3 C 0,6 C 0,0 C 93 % 1015,0 hPa 0,0 l/m 0 min 2 min 0 W/m 19,3 km/h (3 Bft) 97,83 %
06.12.2019 05:44 1,3 C 0,6 C 0,0 C 93 % 1014,9 hPa 0,0 l/m 0 min 2 min 0 W/m 25,7 km/h (4 Bft) 97,87 %
06.12.2019 05:46 1,3 C 0,6 C 0,0 C 93 % 1014,9 hPa 0,0 l/m 0 min 2 min 0 W/m 22,5 km/h (4 Bft) 97,87 %
06.12.2019 05:48 1,3 C 0,6 C 0,0 C 93 % 1014,9 hPa 0,0 l/m 0 min 2 min 0 W/m 16,1 km/h (3 Bft) 97,87 %
06.12.2019 05:50 1,3 C 0,6 C 0,0 C 93 % 1015,0 hPa 0,0 l/m 0 min 0 min 0 W/m 16,1 km/h (3 Bft) 95,74 %
06.12.2019 05:52 1,3 C 0,6 C 0,0 C 93 % 1015,0 hPa 0,0 l/m 0 min 0 min 0 W/m 16,1 km/h (3 Bft) 97,87 %
06.12.2019 05:54 1,3 C 0,6 C 0,0 C 93 % 1014,9 hPa 0,0 l/m 0 min 0 min 0 W/m 16,1 km/h (3 Bft) 97,83 %
06.12.2019 05:56 1,3 C 0,6 C 0,0 C 93 % 1014,9 hPa 0,0 l/m 0 min 0 min 0 W/m 22,5 km/h (4 Bft) 95,74 %
06.12.2019 05:58 1,3 C 0,6 C 0,0 C 93 % 1014,9 hPa 0,0 l/m 0 min 0 min 0 W/m 25,7 km/h (4 Bft) 97,87 %
06.12.2019 06:00 1,3 C 0,6 C 0,0 C 93 % 1014,8 hPa 0,0 l/m 0 min 0 min 0 W/m 16,1 km/h (3 Bft) 97,87 %
06.12.2019 06:02 1,3 C 0,6 C 0,0 C 93 % 1014,8 hPa 0,0 l/m 0 min 0 min 0 W/m 16,1 km/h (3 Bft) 95,74 %
06.12.2019 06:04 1,3 C 0,6 C 0,0 C 93 % 1014,7 hPa 0,0 l/m 0 min 0 min 0 W/m 16,1 km/h (3 Bft) 95,74 %
06.12.2019 06:06 1,3 C 0,6 C 0,0 C 93 % 1014,8 hPa 0,0 l/m 0 min 0 min 0 W/m 19,3 km/h (3 Bft) 97,83 %
06.12.2019 06:08 1,3 C 0,6 C 0,0 C 93 % 1014,7 hPa 0,0 l/m 0 min 0 min 0 W/m 22,5 km/h (4 Bft) 97,87 %
06.12.2019 06:10 1,3 C 0,6 C 0,0 C 93 % 1014,7 hPa 0,0 l/m 0 min 0 min 0 W/m 16,1 km/h (3 Bft) 95,74 %
06.12.2019 06:12 1,3 C 0,6 C 0,0 C 93 % 1014,7 hPa 0,0 l/m 0 min 0 min 0 W/m 12,9 km/h (3 Bft) 97,87 %
06.12.2019 06:14 1,3 C 0,6 C 0,0 C 93 % 1014,8 hPa 0,0 l/m 0 min 0 min 0 W/m 19,3 km/h (3 Bft) 95,74 %
06.12.2019 06:16 1,3 C 0,6 C 0,0 C 93 % 1014,8 hPa 0,0 l/m 0 min 0 min 0 W/m 19,3 km/h (3 Bft) 97,83 %
06.12.2019 06:18 1,3 C 0,6 C 0,0 C 93 % 1014,7 hPa 0,0 l/m 0 min 0 min 0 W/m 22,5 km/h (4 Bft) 95,74 %
06.12.2019 06:20 1,3 C 1,1 C 0,6 C 93 % 1014,7 hPa 0,0 l/m 0 min 0 min 0 W/m 22,5 km/h (4 Bft) 93,62 %
06.12.2019 06:22 1,3 C 1,1 C 0,6 C 93 % 1014,6 hPa 0,0 l/m 0 min 0 min 0 W/m 25,7 km/h (4 Bft) 97,87 %
06.12.2019 06:24 1,3 C 1,1 C 0,6 C 93 % 1014,7 hPa 0,0 l/m 0 min 0 min 0 W/m 16,1 km/h (3 Bft) 95,74 %
06.12.2019 06:26 1,3 C 1,1 C 0,6 C 93 % 1014,7 hPa 0,0 l/m 0 min 0 min 0 W/m 19,3 km/h (3 Bft) 95,74 %
06.12.2019 06:28 1,3 C 1,1 C 0,6 C 93 % 1014,6 hPa 0,0 l/m 0 min 0 min 0 W/m 16,1 km/h (3 Bft) 97,83 %
06.12.2019 06:30 1,3 C 1,1 C 0,6 C 93 % 1014,6 hPa 0,0 l/m 0 min 0 min 0 W/m 19,3 km/h (3 Bft) 97,87 %
06.12.2019 06:32 1,4 C 1,1 C 0,6 C 93 % 1014,6 hPa 0,0 l/m 0 min 0 min 0 W/m 19,3 km/h (3 Bft) 97,87 %
06.12.2019 06:34 1,4 C 1,1 C 0,6 C 93 % 1014,6 hPa 0,0 l/m 0 min 0 min 0 W/m 19,3 km/h (3 Bft) 97,87 %
06.12.2019 06:36 1,4 C 1,1 C 0,6 C 93 % 1014,6 hPa 0,0 l/m 0 min 0 min 0 W/m 19,3 km/h (3 Bft) 95,74 %
06.12.2019 06:38 1,4 C 1,1 C 0,6 C 93 % 1014,6 hPa 0,0 l/m 0 min 0 min 0 W/m 19,3 km/h (3 Bft) 95,74 %
06.12.2019 06:40 1,4 C 1,1 C 0,6 C 93 % 1014,6 hPa 0,0 l/m 0 min 0 min 0 W/m 16,1 km/h (3 Bft) 97,83 %
06.12.2019 06:42 1,4 C 1,1 C 0,6 C 93 % 1014,6 hPa 0,0 l/m 0 min 0 min 0 W/m 16,1 km/h (3 Bft) 97,87 %
06.12.2019 06:44 1,4 C 1,1 C 0,6 C 93 % 1014,6 hPa 0,0 l/m 0 min 0 min 0 W/m 16,1 km/h (3 Bft) 97,87 %
06.12.2019 06:46 1,4 C 1,1 C 0,6 C 93 % 1014,6 hPa 0,0 l/m 0 min 0 min 0 W/m 19,3 km/h (3 Bft) 97,87 %
06.12.2019 06:48 1,4 C 1,1 C 0,6 C 93 % 1014,4 hPa 0,0 l/m 0 min 0 min 0 W/m 22,5 km/h (4 Bft) 97,87 %
06.12.2019 06:50 1,4 C 1,1 C 0,6 C 93 % 1014,4 hPa 0,0 l/m 0 min 0 min 0 W/m 12,9 km/h (3 Bft) 97,87 %
06.12.2019 06:52 1,5 C 1,1 C 0,6 C 93 % 1014,5 hPa 0,0 l/m 0 min 0 min 0 W/m 16,1 km/h (3 Bft) 97,83 %
06.12.2019 06:54 1,5 C 1,1 C 0,6 C 93 % 1014,5 hPa 0,0 l/m 0 min 0 min 0 W/m 12,9 km/h (3 Bft) 97,87 %
06.12.2019 06:56 1,5 C 1,1 C 0,6 C 93 % 1014,4 hPa 0,0 l/m 0 min 0 min 0 W/m 19,3 km/h (3 Bft) 95,74 %
06.12.2019 06:58 1,5 C 1,1 C 0,6 C 93 % 1014,5 hPa 0,0 l/m 0 min 0 min 0 W/m 12,9 km/h (3 Bft) 97,87 %
06.12.2019 07:00 1,6 C 1,1 C 0,6 C 93 % 1014,5 hPa 0,0 l/m 0 min 0 min 0 W/m 9,7 km/h (2 Bft) 100,00 %
06.12.2019 07:02 1,6 C 1,1 C 0,6 C 93 % 1014,5 hPa 0,0 l/m 0 min 0 min 0 W/m 12,9 km/h (3 Bft) 97,87 %
06.12.2019 07:04 1,6 C 1,1 C 0,6 C 93 % 1014,5 hPa 0,0 l/m 0 min 0 min 0 W/m 16,1 km/h (3 Bft) 100,00 %
06.12.2019 07:06 1,6 C 1,1 C 0,6 C 93 % 1014,3 hPa 0,0 l/m 0 min 0 min 0 W/m 16,1 km/h (3 Bft) 97,87 %
06.12.2019 07:08 1,6 C 1,1 C 0,6 C 93 % 1014,3 hPa 0,0 l/m 0 min 0 min 0 W/m 16,1 km/h (3 Bft) 97,87 %
06.12.2019 07:10 1,6 C 1,1 C 0,6 C 93 % 1014,3 hPa 0,0 l/m 0 min 0 min 0 W/m 22,5 km/h (4 Bft) 95,74 %
06.12.2019 07:12 1,6 C 1,1 C 0,6 C 93 % 1014,3 hPa 0,0 l/m 0 min 0 min 0 W/m 22,5 km/h (4 Bft) 97,87 %
06.12.2019 07:14 1,6 C 1,1 C 0,6 C 93 % 1014,3 hPa 0,0 l/m 0 min 0 min 0 W/m 22,5 km/h (4 Bft) 95,65 %
06.12.2019 07:16 1,6 C 1,1 C 0,6 C 93 % 1014,3 hPa 0,0 l/m 0 min 0 min 0 W/m 22,5 km/h (4 Bft) 97,87 %
06.12.2019 07:18 1,6 C 1,1 C 0,6 C 93 % 1014,3 hPa 0,0 l/m 0 min 0 min 0 W/m 19,3 km/h (3 Bft) 95,74 %
06.12.2019 07:20 1,7 C 1,7 C 1,1 C 93 % 1014,3 hPa 0,0 l/m 0 min 0 min 0 W/m 25,7 km/h (4 Bft) 97,87 %
06.12.2019 07:22 1,7 C 1,7 C 1,1 C 93 % 1014,4 hPa 0,0 l/m 0 min 0 min 0 W/m 16,1 km/h (3 Bft) 97,87 %
06.12.2019 07:24 1,7 C 1,1 C 1,1 C 93 % 1014,3 hPa 0,0 l/m 0 min 0 min 0 W/m 19,3 km/h (3 Bft) 97,87 %
06.12.2019 07:26 1,7 C 1,1 C 0,6 C 93 % 1014,2 hPa 0,0 l/m 0 min 0 min 0 W/m 19,3 km/h (3 Bft) 97,83 %
06.12.2019 07:28 1,7 C 1,1 C 0,6 C 93 % 1014,3 hPa 0,0 l/m 0 min 0 min 0 W/m 16,1 km/h (3 Bft) 97,87 %
06.12.2019 07:30 1,7 C 1,1 C 0,6 C 93 % 1014,2 hPa 0,0 l/m 0 min 0 min 0 W/m 16,1 km/h (3 Bft) 97,87 %
06.12.2019 07:32 1,7 C 1,1 C 0,6 C 93 % 1014,2 hPa 0,0 l/m 0 min 0 min 0 W/m 16,1 km/h (3 Bft) 97,87 %
06.12.2019 07:34 1,7 C 1,1 C 0,6 C 93 % 1014,3 hPa 0,0 l/m 0 min 0 min 0 W/m 12,9 km/h (3 Bft) 97,87 %
06.12.2019 07:36 1,7 C 1,1 C 0,6 C 93 % 1014,2 hPa 0,0 l/m 0 min 0 min 0 W/m 19,3 km/h (3 Bft) 95,74 %
06.12.2019 07:38 1,8 C 1,1 C 0,6 C 93 % 1014,2 hPa 0,0 l/m 0 min 0 min 0 W/m 19,3 km/h (3 Bft) 97,83 %
06.12.2019 07:40 1,8 C 1,1 C 0,6 C 93 % 1014,2 hPa 0,0 l/m 0 min 0 min 0 W/m 22,5 km/h (4 Bft) 97,87 %
06.12.2019 07:42 1,8 C 1,1 C 0,6 C 93 % 1014,2 hPa 0,0 l/m 0 min 0 min 0 W/m 19,3 km/h (3 Bft) 97,87 %
06.12.2019 07:44 1,8 C 1,1 C 0,6 C 93 % 1014,2 hPa 0,0 l/m 0 min 0 min 0 W/m 19,3 km/h (3 Bft) 95,74 %
06.12.2019 07:46 1,8 C 1,1 C 1,1 C 93 % 1014,2 hPa 0,0 l/m 0 min 0 min 0 W/m 22,5 km/h (4 Bft) 97,87 %
06.12.2019 07:48 1,8 C 1,1 C 1,1 C 93 % 1014,3 hPa 0,0 l/m 0 min 0 min 0 W/m 19,3 km/h (3 Bft) 97,87 %
06.12.2019 07:50 1,8 C 1,1 C 1,1 C 93 % 1014,3 hPa 0,0 l/m 0 min 0 min 0 W/m 19,3 km/h (3 Bft) 95,65 %
06.12.2019 07:52 1,8 C 1,1 C 1,1 C 93 % 1014,3 hPa 0,0 l/m 0 min 0 min 0 W/m 16,1 km/h (3 Bft) 97,87 %
06.12.2019 07:54 1,8 C 1,1 C 1,1 C 93 % 1014,2 hPa 0,0 l/m 0 min 0 min 0 W/m 12,9 km/h (3 Bft) 97,87 %
06.12.2019 07:56 1,8 C 1,1 C 1,1 C 93 % 1014,3 hPa 0,0 l/m 0 min 0 min 0 W/m 22,5 km/h (4 Bft) 97,87 %
06.12.2019 07:58 1,8 C 1,7 C 1,1 C 93 % 1014,2 hPa 0,0 l/m 0 min 0 min 0 W/m 19,3 km/h (3 Bft) 95,74 %
06.12.2019 08:00 1,8 C 1,7 C 1,1 C 93 % 1014,2 hPa 0,0 l/m 0 min 0 min 0 W/m 19,3 km/h (3 Bft) 97,87 %
06.12.2019 08:02 1,8 C 1,7 C 1,1 C 93 % 1014,2 hPa 0,0 l/m 0 min 0 min 0 W/m 19,3 km/h (3 Bft) 93,48 %
06.12.2019 08:04 1,9 C 1,7 C 1,1 C 93 % 1014,1 hPa 0,0 l/m 0 min 0 min 0 W/m 22,5 km/h (4 Bft) 97,87 %
06.12.2019 08:06 1,8 C 1,7 C 1,1 C 92 % 1014,1 hPa 0,0 l/m 0 min 0 min 0 W/m 19,3 km/h (3 Bft) 97,87 %
06.12.2019 08:08 1,9 C 1,7 C 1,1 C 92 % 1014,1 hPa 0,0 l/m 0 min 0 min 0 W/m 16,1 km/h (3 Bft) 95,74 %
06.12.2019 08:10 1,9 C 1,7 C 1,1 C 92 % 1014,0 hPa 0,0 l/m 0 min 0 min 0 W/m 19,3 km/h (3 Bft) 97,87 %
06.12.2019 08:12 1,9 C 1,7 C 1,1 C 92 % 1014,0 hPa 0,0 l/m 0 min 0 min 0 W/m 16,1 km/h (3 Bft) 93,48 %
06.12.2019 08:14 1,9 C 1,7 C 1,1 C 92 % 1014,1 hPa 0,0 l/m 0 min 0 min 0 W/m 16,1 km/h (3 Bft) 100,00 %
06.12.2019 08:16 1,9 C 1,7 C 1,1 C 92 % 1014,0 hPa 0,0 l/m 0 min 0 min 0 W/m 12,9 km/h (3 Bft) 100,00 %
06.12.2019 08:18 2,0 C 1,7 C 1,1 C 92 % 1014,1 hPa 0,0 l/m 0 min 0 min 0 W/m 29,0 km/h (5 Bft) 97,87 %
06.12.2019 08:20 2,0 C 1,7 C 1,1 C 92 % 1014,1 hPa 0,0 l/m 0 min 0 min 0 W/m 12,9 km/h (3 Bft) 97,87 %
06.12.2019 08:22 2,1 C 1,7 C 1,1 C 92 % 1014,1 hPa 0,0 l/m 0 min 0 min 0 W/m 19,3 km/h (3 Bft) 95,74 %
06.12.2019 08:24 2,1 C 1,7 C 1,1 C 92 % 1014,1 hPa 0,0 l/m 0 min 0 min 0 W/m 16,1 km/h (3 Bft) 97,83 %
06.12.2019 08:26 2,1 C 1,7 C 1,1 C 92 % 1014,0 hPa 0,0 l/m 0 min 0 min 0 W/m 16,1 km/h (3 Bft) 97,87 %
06.12.2019 08:28 2,1 C 1,7 C 1,1 C 92 % 1014,1 hPa 0,0 l/m 0 min 0 min 0 W/m 12,9 km/h (3 Bft) 97,87 %
06.12.2019 08:30 2,1 C 1,7 C 1,1 C 92 % 1014,1 hPa 0,0 l/m 0 min 0 min 0 W/m 16,1 km/h (3 Bft) 97,87 %
06.12.2019 08:32 2,1 C 1,7 C 1,1 C 92 % 1014,1 hPa 0,0 l/m 0 min 0 min 0 W/m 16,1 km/h (3 Bft) 97,87 %
06.12.2019 08:34 2,1 C 1,7 C 1,1 C 92 % 1014,1 hPa 0,0 l/m 0 min 0 min 0 W/m 12,9 km/h (3 Bft) 97,87 %
06.12.2019 08:36 2,2 C 1,7 C 1,1 C 92 % 1014,1 hPa 0,0 l/m 0 min 0 min 0 W/m 19,3 km/h (3 Bft) 97,83 %
06.12.2019 08:38 2,2 C 2,2 C 1,1 C 92 % 1014,1 hPa 0,0 l/m 0 min 0 min 0 W/m 19,3 km/h (3 Bft) 95,74 %
06.12.2019 08:40 2,2 C 2,2 C 1,1 C 92 % 1014,1 hPa 0,0 l/m 0 min 0 min 0 W/m 19,3 km/h (3 Bft) 97,87 %
06.12.2019 08:42 2,2 C 2,2 C 1,7 C 92 % 1014,1 hPa 0,0 l/m 0 min 0 min 0 W/m 22,5 km/h (4 Bft) 97,87 %
06.12.2019 08:44 2,2 C 2,2 C 1,7 C 92 % 1014,1 hPa 0,0 l/m 0 min 0 min 0 W/m 19,3 km/h (3 Bft) 97,87 %
06.12.2019 08:46 2,2 C 2,2 C 1,7 C 92 % 1014,1 hPa 0,0 l/m 0 min 0 min 0 W/m 19,3 km/h (3 Bft) 97,87 %
06.12.2019 08:48 2,3 C 2,2 C 1,7 C 92 % 1014,1 hPa 0,0 l/m 0 min 0 min 0 W/m 22,5 km/h (4 Bft) 95,65 %
06.12.2019 08:50 2,3 C 2,2 C 1,7 C 92 % 1014,1 hPa 0,0 l/m 0 min 0 min 0 W/m 12,9 km/h (3 Bft) 95,74 %
06.12.2019 08:52 2,3 C 2,2 C 1,7 C 92 % 1014,1 hPa 0,0 l/m 0 min 0 min 0 W/m 12,9 km/h (3 Bft) 95,74 %
06.12.2019 08:54 2,3 C 2,2 C 1,7 C 91 % 1014,1 hPa 0,0 l/m 0 min 2 min 0 W/m 12,9 km/h (3 Bft) 95,74 %
06.12.2019 08:56 2,3 C 1,7 C 1,1 C 91 % 1014,2 hPa 0,0 l/m 0 min 2 min 1 W/m 22,5 km/h (4 Bft) 93,62 %
06.12.2019 08:58 2,3 C 1,7 C 1,1 C 91 % 1014,1 hPa 0,0 l/m 0 min 2 min 5 W/m 19,3 km/h (3 Bft) 95,74 %
06.12.2019 09:00 2,3 C 1,1 C 1,1 C 91 % 1014,1 hPa 0,0 l/m 0 min 2 min 5 W/m 25,7 km/h (4 Bft) 95,65 %
06.12.2019 09:02 2,4 C 1,1 C 1,1 C 91 % 1014,1 hPa 0,0 l/m 0 min 2 min 5 W/m 19,3 km/h (3 Bft) 93,62 %
06.12.2019 09:04 2,4 C 1,1 C 1,1 C 91 % 1014,1 hPa 0,0 l/m 0 min 2 min 5 W/m 16,1 km/h (3 Bft) 87,23 %
06.12.2019 09:06 2,4 C 1,1 C 0,6 C 91 % 1014,1 hPa 0,0 l/m 0 min 2 min 5 W/m 19,3 km/h (3 Bft) 95,74 %
06.12.2019 09:08 2,4 C 1,1 C 0,6 C 91 % 1014,0 hPa 0,0 l/m 0 min 2 min 5 W/m 12,9 km/h (3 Bft) 95,74 %
06.12.2019 09:10 2,4 C 1,1 C 0,6 C 91 % 1014,0 hPa 0,0 l/m 0 min 2 min 5 W/m 16,1 km/h (3 Bft) 95,74 %
06.12.2019 09:12 2,4 C 1,1 C 0,6 C 91 % 1014,1 hPa 0,0 l/m 0 min 2 min 5 W/m 19,3 km/h (3 Bft) 95,65 %
06.12.2019 09:14 2,4 C 1,1 C 0,6 C 91 % 1014,1 hPa 0,0 l/m 0 min 2 min 5 W/m 16,1 km/h (3 Bft) 93,62 %
06.12.2019 09:16 2,4 C 1,1 C 0,6 C 91 % 1014,0 hPa 0,0 l/m 0 min 2 min 6 W/m 12,9 km/h (3 Bft) 97,87 %
06.12.2019 09:18 2,4 C 1,1 C 0,6 C 91 % 1014,1 hPa 0,0 l/m 0 min 2 min 7 W/m 16,1 km/h (3 Bft) 97,87 %
06.12.2019 09:20 2,4 C 1,1 C 0,6 C 91 % 1014,0 hPa 0,0 l/m 0 min 2 min 7 W/m 19,3 km/h (3 Bft) 97,87 %
06.12.2019 09:22 2,4 C 1,1 C 0,6 C 92 % 1014,0 hPa 0,0 l/m 0 min 2 min 7 W/m 12,9 km/h (3 Bft) 97,83 %
06.12.2019 09:24 2,4 C 1,1 C 0,6 C 92 % 1014,0 hPa 0,0 l/m 0 min 2 min 7 W/m 16,1 km/h (3 Bft) 97,87 %
06.12.2019 09:26 2,4 C 1,1 C 0,6 C 92 % 1014,0 hPa 0,0 l/m 0 min 2 min 7 W/m 16,1 km/h (3 Bft) 97,87 %
06.12.2019 09:28 2,5 C 1,1 C 0,6 C 92 % 1014,0 hPa 0,0 l/m 0 min 2 min 8 W/m 12,9 km/h (3 Bft) 97,87 %
06.12.2019 09:30 2,5 C 1,1 C 0,6 C 92 % 1014,0 hPa 0,0 l/m 0 min 2 min 9 W/m 12,9 km/h (3 Bft) 97,87 %
06.12.2019 09:32 2,5 C 1,1 C 0,6 C 92 % 1013,9 hPa 0,2 l/m 0 min 2 min 10 W/m 12,9 km/h (3 Bft) 95,74 %
06.12.2019 09:34 2,5 C 1,1 C 0,6 C 92 % 1013,9 hPa 0,0 l/m 0 min 2 min 11 W/m 12,9 km/h (3 Bft) 100,00 %
06.12.2019 09:36 2,5 C 1,1 C 1,1 C 92 % 1013,9 hPa 0,0 l/m 0 min 2 min 12 W/m 6,4 km/h (2 Bft) 97,87 %
06.12.2019 09:38 2,5 C 1,1 C 1,1 C 92 % 1013,8 hPa 0,0 l/m 0 min 0 min 12 W/m 12,9 km/h (3 Bft) 97,87 %
06.12.2019 09:40 2,6 C 1,1 C 1,1 C 92 % 1013,8 hPa 0,0 l/m 0 min 0 min 12 W/m 16,1 km/h (3 Bft) 97,87 %
06.12.2019 09:42 2,6 C 1,7 C 1,1 C 92 % 1013,9 hPa 0,0 l/m 0 min 0 min 11 W/m 16,1 km/h (3 Bft) 100,00 %
06.12.2019 09:44 2,6 C 1,7 C 1,1 C 93 % 1013,9 hPa 0,0 l/m 0 min 0 min 11 W/m 12,9 km/h (3 Bft) 97,87 %
06.12.2019 09:46 2,6 C 1,7 C 1,1 C 93 % 1013,8 hPa 0,0 l/m 0 min 0 min 11 W/m 16,1 km/h (3 Bft) 100,00 %
06.12.2019 09:48 2,6 C 1,7 C 1,1 C 93 % 1013,8 hPa 0,0 l/m 0 min 0 min 12 W/m 12,9 km/h (3 Bft) 97,87 %
06.12.2019 09:50 2,6 C 1,7 C 1,1 C 93 % 1013,9 hPa 0,0 l/m 0 min 0 min 12 W/m 19,3 km/h (3 Bft) 100,00 %
06.12.2019 09:52 2,6 C 1,7 C 1,1 C 93 % 1013,8 hPa 0,0 l/m 0 min 0 min 14 W/m 16,1 km/h (3 Bft) 100,00 %
06.12.2019 09:54 2,7 C 1,7 C 1,1 C 93 % 1013,7 hPa 0,0 l/m 0 min 0 min 14 W/m 19,3 km/h (3 Bft) 100,00 %
06.12.2019 09:56 2,7 C 1,7 C 1,1 C 93 % 1013,8 hPa 0,0 l/m 0 min 2 min 14 W/m 6,4 km/h (2 Bft) 100,00 %
06.12.2019 09:58 2,7 C 1,7 C 1,1 C 93 % 1013,7 hPa 0,0 l/m 0 min 2 min 14 W/m 16,1 km/h (3 Bft) 100,00 %
06.12.2019 10:00 2,7 C 1,7 C 1,1 C 93 % 1013,7 hPa 0,0 l/m 0 min 2 min 14 W/m 12,9 km/h (3 Bft) 100,00 %
06.12.2019 10:02 2,8 C 1,7 C 1,1 C 93 % 1013,7 hPa 0,0 l/m 0 min 2 min 15 W/m 16,1 km/h (3 Bft) 100,00 %
06.12.2019 10:04 2,8 C 1,7 C 1,1 C 93 % 1013,6 hPa 0,0 l/m 0 min 2 min 16 W/m 16,1 km/h (3 Bft) 100,00 %
06.12.2019 10:06 2,8 C 1,7 C 1,1 C 93 % 1013,7 hPa 0,0 l/m 0 min 2 min 17 W/m 12,9 km/h (3 Bft) 100,00 %
06.12.2019 10:08 2,8 C 1,7 C 1,1 C 93 % 1013,6 hPa 0,0 l/m 0 min 2 min 18 W/m 16,1 km/h (3 Bft) 97,87 %
06.12.2019 10:10 2,9 C 1,7 C 1,7 C 93 % 1013,6 hPa 0,0 l/m 0 min 2 min 19 W/m 19,3 km/h (3 Bft) 100,00 %
06.12.2019 10:12 2,9 C 1,7 C 1,7 C 93 % 1013,7 hPa 0,0 l/m 0 min 2 min 20 W/m 16,1 km/h (3 Bft) 100,00 %
06.12.2019 10:14 2,9 C 1,7 C 1,7 C 93 % 1013,7 hPa 0,0 l/m 0 min 2 min 21 W/m 16,1 km/h (3 Bft) 100,00 %
06.12.2019 10:16 3,0 C 1,7 C 1,7 C 93 % 1013,6 hPa 0,0 l/m 0 min 2 min 21 W/m 12,9 km/h (3 Bft) 97,87 %
06.12.2019 10:18 3,0 C 1,7 C 1,7 C 93 % 1013,7 hPa 0,2 l/m 0 min 2 min 21 W/m 22,5 km/h (4 Bft) 100,00 %
06.12.2019 10:20 3,1 C 1,7 C 1,1 C 93 % 1013,7 hPa 0,0 l/m 0 min 2 min 21 W/m 25,7 km/h (4 Bft) 100,00 %
06.12.2019 10:22 3,0 C 1,7 C 1,1 C 93 % 1013,6 hPa 0,0 l/m 0 min 2 min 21 W/m 22,5 km/h (4 Bft) 97,87 %
06.12.2019 10:24 3,0 C 1,7 C 1,1 C 93 % 1013,6 hPa 0,0 l/m 0 min 2 min 23 W/m 19,3 km/h (3 Bft) 97,87 %
06.12.2019 10:26 3,0 C 1,7 C 1,1 C 93 % 1013,6 hPa 0,0 l/m 0 min 2 min 24 W/m 16,1 km/h (3 Bft) 100,00 %
06.12.2019 10:28 3,0 C 1,7 C 1,1 C 93 % 1013,6 hPa 0,0 l/m 0 min 2 min 25 W/m 19,3 km/h (3 Bft) 100,00 %
06.12.2019 10:30 3,0 C 1,7 C 1,1 C 93 % 1013,5 hPa 0,0 l/m 0 min 2 min 25 W/m 19,3 km/h (3 Bft) 100,00 %
06.12.2019 10:32 3,0 C 1,7 C 1,1 C 93 % 1013,5 hPa 0,0 l/m 0 min 2 min 24 W/m 22,5 km/h (4 Bft) 97,83 %
06.12.2019 10:34 3,0 C 1,7 C 1,1 C 93 % 1013,5 hPa 0,0 l/m 0 min 2 min 23 W/m 16,1 km/h (3 Bft) 100,00 %
06.12.2019 10:36 2,9 C 1,7 C 1,1 C 93 % 1013,4 hPa 0,0 l/m 0 min 2 min 25 W/m 19,3 km/h (3 Bft) 100,00 %
06.12.2019 10:38 3,0 C 1,7 C 1,1 C 94 % 1013,4 hPa 0,0 l/m 0 min 2 min 24 W/m 16,1 km/h (3 Bft) 97,87 %
06.12.2019 10:40 3,0 C 1,7 C 1,1 C 94 % 1013,4 hPa 0,0 l/m 0 min 2 min 23 W/m 16,1 km/h (3 Bft) 97,87 %
06.12.2019 10:42 3,0 C 1,7 C 1,1 C 94 % 1013,5 hPa 0,0 l/m 0 min 2 min 23 W/m 22,5 km/h (4 Bft) 95,74 %
06.12.2019 10:44 3,0 C 1,7 C 1,7 C 94 % 1013,4 hPa 0,0 l/m 0 min 2 min 22 W/m 19,3 km/h (3 Bft) 97,83 %
06.12.2019 10:46 3,1 C 2,2 C 1,7 C 94 % 1013,4 hPa 0,2 l/m 0 min 2 min 21 W/m 16,1 km/h (3 Bft) 95,74 %
06.12.2019 10:48 3,1 C 2,2 C 1,7 C 94 % 1013,4 hPa 0,0 l/m 0 min 2 min 21 W/m 19,3 km/h (3 Bft) 93,62 %
06.12.2019 10:50 3,1 C 2,2 C 1,7 C 94 % 1013,4 hPa 0,0 l/m 0 min 2 min 23 W/m 16,1 km/h (3 Bft) 95,74 %
06.12.2019 10:52 3,1 C 1,7 C 1,7 C 94 % 1013,4 hPa 0,0 l/m 0 min 2 min 23 W/m 12,9 km/h (3 Bft) 97,87 %
06.12.2019 10:54 3,1 C 1,7 C 1,7 C 94 % 1013,4 hPa 0,0 l/m 0 min 2 min 23 W/m 19,3 km/h (3 Bft) 97,87 %
06.12.2019 10:56 3,1 C 1,7 C 1,7 C 94 % 1013,2 hPa 0,2 l/m 0 min 2 min 24 W/m 16,1 km/h (3 Bft) 95,65 %
06.12.2019 10:58 3,1 C 1,7 C 1,1 C 94 % 1013,2 hPa 0,0 l/m 0 min 2 min 24 W/m 16,1 km/h (3 Bft) 95,74 %
06.12.2019 11:00 3,1 C 1,7 C 1,1 C 94 % 1013,2 hPa 0,0 l/m 0 min 2 min 25 W/m 19,3 km/h (3 Bft) 97,87 %
06.12.2019 11:02 3,1 C 1,7 C 1,1 C 94 % 1013,2 hPa 0,0 l/m 0 min 2 min 26 W/m 16,1 km/h (3 Bft) 95,74 %
06.12.2019 11:04 3,1 C 1,7 C 1,1 C 94 % 1013,2 hPa 0,0 l/m 0 min 2 min 26 W/m 16,1 km/h (3 Bft) 93,62 %
06.12.2019 11:06 3,0 C 1,7 C 1,1 C 94 % 1013,1 hPa 0,2 l/m 0 min 2 min 26 W/m 12,9 km/h (3 Bft) 95,65 %
06.12.2019 11:08 3,0 C 1,7 C 1,1 C 94 % 1013,1 hPa 0,0 l/m 0 min 2 min 26 W/m 16,1 km/h (3 Bft) 95,74 %
06.12.2019 11:10 3,0 C 1,7 C 1,1 C 94 % 1013,1 hPa 0,0 l/m 0 min 2 min 28 W/m 16,1 km/h (3 Bft) 95,74 %
06.12.2019 11:12 3,0 C 1,7 C 1,1 C 94 % 1013,1 hPa 0,0 l/m 0 min 2 min 27 W/m 12,9 km/h (3 Bft) 93,62 %
06.12.2019 11:14 3,0 C 1,7 C 1,1 C 94 % 1013,1 hPa 0,0 l/m 0 min 2 min 24 W/m 16,1 km/h (3 Bft) 95,74 %
06.12.2019 11:16 2,9 C 1,7 C 1,1 C 95 % 1013,1 hPa 0,2 l/m 0 min 2 min 21 W/m 12,9 km/h (3 Bft) 95,74 %
06.12.2019 11:18 2,9 C 1,7 C 1,1 C 95 % 1013,0 hPa 0,0 l/m 0 min 2 min 22 W/m 12,9 km/h (3 Bft) 95,65 %
06.12.2019 11:20 2,9 C 1,7 C 1,1 C 94 % 1013,0 hPa 0,0 l/m 0 min 2 min 21 W/m 16,1 km/h (3 Bft) 95,74 %
06.12.2019 11:22 2,9 C 1,7 C 1,1 C 95 % 1012,9 hPa 0,0 l/m 0 min 2 min 21 W/m 19,3 km/h (3 Bft) 95,74 %
06.12.2019 11:24 2,9 C 1,7 C 1,1 C 95 % 1012,9 hPa 0,0 l/m 0 min 2 min 21 W/m 25,7 km/h (4 Bft) 93,62 %
06.12.2019 11:26 2,9 C 1,7 C 1,7 C 95 % 1012,8 hPa 0,2 l/m 0 min 2 min 21 W/m 16,1 km/h (3 Bft) 95,74 %
06.12.2019 11:28 2,9 C 2,2 C 1,7 C 95 % 1012,7 hPa 0,0 l/m 0 min 2 min 21 W/m 16,1 km/h (3 Bft) 95,74 %
06.12.2019 11:30 2,9 C 2,2 C 1,7 C 95 % 1012,7 hPa 0,0 l/m 0 min 2 min 19 W/m 12,9 km/h (3 Bft) 93,48 %
06.12.2019 11:32 3,0 C 2,2 C 1,7 C 95 % 1012,6 hPa 0,2 l/m 0 min 2 min 19 W/m 16,1 km/h (3 Bft) 91,49 %
06.12.2019 11:34 3,0 C 2,2 C 1,7 C 95 % 1012,5 hPa 0,0 l/m 0 min 2 min 20 W/m 19,3 km/h (3 Bft) 93,62 %
06.12.2019 11:36 3,1 C 2,2 C 1,7 C 95 % 1012,5 hPa 0,0 l/m 0 min 2 min 21 W/m 16,1 km/h (3 Bft) 91,49 %
06.12.2019 11:38 3,1 C 2,2 C 1,7 C 95 % 1012,5 hPa 0,2 l/m 0 min 2 min 20 W/m 12,9 km/h (3 Bft) 93,62 %
06.12.2019 11:40 3,1 C 2,2 C 1,7 C 95 % 1012,4 hPa 0,0 l/m 0 min 2 min 19 W/m 12,9 km/h (3 Bft) 95,74 %
06.12.2019 11:42 3,1 C 2,2 C 1,7 C 95 % 1012,4 hPa 0,0 l/m 0 min 2 min 19 W/m 12,9 km/h (3 Bft) 95,65 %
06.12.2019 11:44 3,1 C 2,2 C 1,7 C 95 % 1012,4 hPa 0,2 l/m 0 min 2 min 18 W/m 16,1 km/h (3 Bft) 97,87 %
06.12.2019 11:46 3,1 C 2,2 C 1,7 C 96 % 1012,4 hPa 0,0 l/m 0 min 2 min 18 W/m 12,9 km/h (3 Bft) 97,87 %
06.12.2019 11:48 3,2 C 2,2 C 1,7 C 96 % 1012,4 hPa 0,0 l/m 0 min 2 min 18 W/m 6,4 km/h (2 Bft) 97,87 %
06.12.2019 11:50 3,2 C 2,2 C 1,7 C 96 % 1012,3 hPa 0,0 l/m 0 min 2 min 19 W/m 12,9 km/h (3 Bft) 95,74 %
06.12.2019 11:52 3,2 C 2,8 C 2,2 C 96 % 1012,2 hPa 0,0 l/m 0 min 2 min 22 W/m 12,9 km/h (3 Bft) 97,87 %
06.12.2019 11:54 3,3 C 3,3 C 2,2 C 96 % 1012,1 hPa 0,0 l/m 0 min 2 min 23 W/m 12,9 km/h (3 Bft) 97,83 %
06.12.2019 11:56 3,4 C 3,3 C 2,8 C 96 % 1012,1 hPa 0,0 l/m 0 min 2 min 25 W/m 22,5 km/h (4 Bft) 95,74 %
06.12.2019 11:58 3,6 C 3,9 C 3,3 C 96 % 1012,0 hPa 0,2 l/m 0 min 2 min 25 W/m 25,7 km/h (4 Bft) 97,87 %
06.12.2019 12:00 3,8 C 3,9 C 3,3 C 96 % 1012,0 hPa 0,0 l/m 0 min 2 min 24 W/m 22,5 km/h (4 Bft) 97,87 %
06.12.2019 12:02 3,9 C 3,9 C 3,3 C 97 % 1011,9 hPa 0,0 l/m 0 min 2 min 21 W/m 16,1 km/h (3 Bft) 97,87 %
06.12.2019 12:04 4,1 C 3,9 C 3,3 C 97 % 1011,9 hPa 0,0 l/m 0 min 2 min 19 W/m 19,3 km/h (3 Bft) 95,65 %
06.12.2019 12:08 4,4 C 3,9 C 3,3 C 97 % 1011,7 hPa 0,0 l/m 0 min 0 min 20 W/m 32,2 km/h (5 Bft) 96,81 %
06.12.2019 12:10 4,6 C 3,9 C 3,3 C 97 % 1011,6 hPa 0,0 l/m 0 min 0 min 26 W/m 38,6 km/h (5 Bft) 97,87 %
06.12.2019 12:12 4,6 C 4,4 C 3,3 C 97 % 1011,6 hPa 0,0 l/m 0 min 0 min 33 W/m 29,0 km/h (5 Bft) 97,87 %
06.12.2019 12:14 4,7 C 4,4 C 3,3 C 97 % 1011,5 hPa 0,0 l/m 0 min 0 min 34 W/m 38,6 km/h (5 Bft) 100,00 %
06.12.2019 12:16 4,8 C 4,4 C 3,9 C 97 % 1011,5 hPa 0,0 l/m 0 min 0 min 27 W/m 25,7 km/h (4 Bft) 100,00 %
06.12.2019 12:18 4,9 C 4,4 C 3,9 C 97 % 1011,5 hPa 0,0 l/m 0 min 0 min 26 W/m 22,5 km/h (4 Bft) 100,00 %
06.12.2019 12:20 4,9 C 4,4 C 3,9 C 97 % 1011,5 hPa 0,0 l/m 0 min 0 min 27 W/m 22,5 km/h (4 Bft) 97,87 %
06.12.2019 12:22 5,0 C 4,4 C 3,9 C 97 % 1011,5 hPa 0,0 l/m 0 min 0 min 28 W/m 25,7 km/h (4 Bft) 97,87 %
06.12.2019 12:24 5,1 C 4,4 C 3,9 C 97 % 1011,4 hPa 0,0 l/m 0 min 0 min 28 W/m 19,3 km/h (3 Bft) 97,87 %
06.12.2019 12:26 5,1 C 4,4 C 3,9 C 97 % 1011,4 hPa 0,0 l/m 0 min 0 min 26 W/m 16,1 km/h (3 Bft) 100,00 %
06.12.2019 12:28 5,1 C 4,4 C 3,9 C 97 % 1011,4 hPa 0,0 l/m 0 min 0 min 25 W/m 19,3 km/h (3 Bft) 100,00 %
06.12.2019 12:30 5,2 C 4,4 C 3,9 C 98 % 1011,3 hPa 0,0 l/m 0 min 0 min 25 W/m 25,7 km/h (4 Bft) 100,00 %
06.12.2019 12:32 5,2 C 4,4 C 3,9 C 98 % 1011,3 hPa 0,0 l/m 0 min 0 min 24 W/m 32,2 km/h (5 Bft) 97,87 %
06.12.2019 12:34 5,3 C 5,0 C 3,9 C 97 % 1011,3 hPa 0,0 l/m 0 min 0 min 27 W/m 22,5 km/h (4 Bft) 100,00 %
06.12.2019 12:36 5,3 C 5,0 C 3,9 C 97 % 1011,3 hPa 0,0 l/m 0 min 0 min 28 W/m 29,0 km/h (5 Bft) 95,74 %
06.12.2019 12:38 5,3 C 5,0 C 3,9 C 97 % 1011,2 hPa 0,0 l/m 0 min 0 min 29 W/m 22,5 km/h (4 Bft) 100,00 %
06.12.2019 12:40 5,4 C 5,0 C 3,9 C 97 % 1011,2 hPa 0,0 l/m 0 min 0 min 28 W/m 29,0 km/h (5 Bft) 100,00 %
06.12.2019 12:42 5,4 C 5,0 C 4,4 C 97 % 1011,1 hPa 0,0 l/m 0 min 0 min 29 W/m 25,7 km/h (4 Bft) 100,00 %
06.12.2019 12:44 5,5 C 5,0 C 4,4 C 97 % 1011,1 hPa 0,0 l/m 0 min 0 min 31 W/m 32,2 km/h (5 Bft) 100,00 %
06.12.2019 12:46 5,6 C 5,0 C 4,4 C 97 % 1011,1 hPa 0,0 l/m 0 min 0 min 32 W/m 22,5 km/h (4 Bft) 100,00 %
06.12.2019 12:48 5,6 C 5,0 C 4,4 C 97 % 1011,1 hPa 0,0 l/m 0 min 0 min 28 W/m 35,4 km/h (5 Bft) 100,00 %
06.12.2019 12:50 5,7 C 5,0 C 4,4 C 97 % 1011,1 hPa 0,0 l/m 0 min 0 min 24 W/m 22,5 km/h (4 Bft) 97,87 %
06.12.2019 12:52 5,7 C 5,0 C 4,4 C 97 % 1011,0 hPa 0,0 l/m 0 min 0 min 22 W/m 16,1 km/h (3 Bft) 100,00 %
06.12.2019 12:54 5,8 C 5,0 C 4,4 C 97 % 1011,1 hPa 0,0 l/m 0 min 0 min 21 W/m 19,3 km/h (3 Bft) 100,00 %
06.12.2019 12:56 5,8 C 5,0 C 4,4 C 97 % 1011,1 hPa 0,0 l/m 0 min 0 min 22 W/m 41,8 km/h (6 Bft) 100,00 %
06.12.2019 12:58 5,8 C 5,0 C 4,4 C 97 % 1011,1 hPa 0,0 l/m 0 min 0 min 23 W/m 19,3 km/h (3 Bft) 100,00 %
06.12.2019 13:00 5,9 C 5,0 C 4,4 C 97 % 1011,0 hPa 0,0 l/m 0 min 2 min 23 W/m 38,6 km/h (5 Bft) 100,00 %
06.12.2019 13:02 5,9 C 5,0 C 4,4 C 97 % 1011,1 hPa 0,0 l/m 0 min 2 min 23 W/m 19,3 km/h (3 Bft) 100,00 %
06.12.2019 13:04 6,0 C 5,0 C 4,4 C 97 % 1011,0 hPa 0,0 l/m 0 min 2 min 25 W/m 25,7 km/h (4 Bft) 100,00 %
06.12.2019 13:06 6,0 C 5,0 C 4,4 C 97 % 1011,0 hPa 0,0 l/m 0 min 2 min 24 W/m 16,1 km/h (3 Bft) 100,00 %
06.12.2019 13:08 6,1 C 5,0 C 4,4 C 97 % 1011,0 hPa 0,2 l/m 0 min 2 min 20 W/m 19,3 km/h (3 Bft) 100,00 %
06.12.2019 13:10 6,1 C 5,0 C 4,4 C 97 % 1010,9 hPa 0,0 l/m 0 min 2 min 18 W/m 22,5 km/h (4 Bft) 100,00 %
06.12.2019 13:12 6,1 C 5,0 C 4,4 C 97 % 1010,9 hPa 0,0 l/m 0 min 2 min 17 W/m 25,7 km/h (4 Bft) 100,00 %
06.12.2019 13:14 6,2 C 5,0 C 4,4 C 97 % 1010,8 hPa 0,0 l/m 0 min 2 min 21 W/m 16,1 km/h (3 Bft) 100,00 %
06.12.2019 13:16 6,2 C 5,0 C 4,4 C 96 % 1010,8 hPa 0,0 l/m 0 min 2 min 23 W/m 29,0 km/h (5 Bft) 100,00 %
06.12.2019 13:18 6,2 C 5,0 C 4,4 C 96 % 1010,7 hPa 0,0 l/m 0 min 2 min 25 W/m 19,3 km/h (3 Bft) 100,00 %
06.12.2019 13:20 6,3 C 5,0 C 4,4 C 96 % 1010,6 hPa 0,0 l/m 0 min 2 min 24 W/m 12,9 km/h (3 Bft) 97,87 %
06.12.2019 13:22 6,3 C 5,0 C 4,4 C 96 % 1010,6 hPa 0,0 l/m 0 min 2 min 22 W/m 12,9 km/h (3 Bft) 100,00 %
06.12.2019 13:24 6,3 C 5,0 C 4,4 C 96 % 1010,6 hPa 0,2 l/m 0 min 2 min 21 W/m 25,7 km/h (4 Bft) 97,87 %
06.12.2019 13:26 6,3 C 5,0 C 4,4 C 96 % 1010,5 hPa 0,0 l/m 0 min 2 min 21 W/m 19,3 km/h (3 Bft) 95,65 %
06.12.2019 13:28 6,3 C 5,0 C 4,4 C 96 % 1010,4 hPa 0,0 l/m 0 min 2 min 21 W/m 25,7 km/h (4 Bft) 95,74 %
06.12.2019 13:30 6,3 C 5,0 C 4,4 C 96 % 1010,4 hPa 0,0 l/m 0 min 2 min 19 W/m 29,0 km/h (5 Bft) 100,00 %
06.12.2019 13:32 6,4 C 5,0 C 4,4 C 96 % 1010,4 hPa 0,0 l/m 0 min 2 min 19 W/m 25,7 km/h (4 Bft) 100,00 %
06.12.2019 13:34 6,4 C 5,0 C 4,4 C 96 % 1010,3 hPa 0,0 l/m 0 min 2 min 18 W/m 32,2 km/h (5 Bft) 97,87 %
06.12.2019 13:36 6,4 C 5,0 C 4,4 C 96 % 1010,3 hPa 0,0 l/m 0 min 2 min 17 W/m 25,7 km/h (4 Bft) 97,87 %
06.12.2019 13:38 6,4 C 5,0 C 4,4 C 96 % 1010,3 hPa 0,0 l/m 0 min 2 min 15 W/m 22,5 km/h (4 Bft) 100,00 %
06.12.2019 13:40 6,4 C 5,6 C 4,4 C 96 % 1010,3 hPa 0,0 l/m 0 min 2 min 15 W/m 22,5 km/h (4 Bft) 97,87 %
06.12.2019 13:42 6,5 C 5,6 C 4,4 C 96 % 1010,3 hPa 0,0 l/m 0 min 0 min 14 W/m 29,0 km/h (5 Bft) 97,87 %
06.12.2019 13:44 6,5 C 5,6 C 5,0 C 96 % 1010,2 hPa 0,0 l/m 0 min 2 min 15 W/m 25,7 km/h (4 Bft) 97,87 %
06.12.2019 13:46 6,5 C 5,6 C 5,0 C 96 % 1010,2 hPa 0,0 l/m 0 min 0 min 14 W/m 25,7 km/h (4 Bft) 95,74 %
06.12.2019 13:48 6,5 C 5,6 C 5,0 C 96 % 1010,2 hPa 0,0 l/m 0 min 0 min 13 W/m 19,3 km/h (3 Bft) 97,83 %
06.12.2019 13:50 6,5 C 5,6 C 5,0 C 96 % 1010,1 hPa 0,0 l/m 0 min 2 min 14 W/m 25,7 km/h (4 Bft) 97,87 %
06.12.2019 13:52 6,5 C 5,6 C 5,0 C 96 % 1010,0 hPa 0,0 l/m 0 min 0 min 14 W/m 19,3 km/h (3 Bft) 95,74 %
06.12.2019 13:54 6,5 C 5,6 C 5,0 C 96 % 1010,0 hPa 0,0 l/m 0 min 0 min 14 W/m 22,5 km/h (4 Bft) 97,87 %
06.12.2019 13:56 6,5 C 5,6 C 5,0 C 96 % 1010,0 hPa 0,0 l/m 0 min 0 min 14 W/m 32,2 km/h (5 Bft) 97,87 %
06.12.2019 13:58 6,5 C 5,6 C 5,0 C 96 % 1010,0 hPa 0,0 l/m 0 min 0 min 13 W/m 22,5 km/h (4 Bft) 100,00 %
06.12.2019 14:00 6,6 C 5,6 C 5,0 C 96 % 1009,9 hPa 0,0 l/m 0 min 0 min 16 W/m 16,1 km/h (3 Bft) 95,65 %
06.12.2019 14:02 6,6 C 5,6 C 5,0 C 96 % 1009,8 hPa 0,0 l/m 0 min 0 min 13 W/m 6,4 km/h (2 Bft) 91,49 %
06.12.2019 14:04 6,6 C 5,6 C 5,0 C 96 % 1009,8 hPa 0,0 l/m 0 min 0 min 12 W/m 19,3 km/h (3 Bft) 93,62 %
06.12.2019 14:06 6,6 C 5,6 C 5,0 C 96 % 1009,8 hPa 0,0 l/m 0 min 0 min 12 W/m 19,3 km/h (3 Bft) 93,62 %
06.12.2019 14:08 6,6 C 5,6 C 5,0 C 96 % 1009,8 hPa 0,0 l/m 0 min 0 min 10 W/m 16,1 km/h (3 Bft) 87,23 %
06.12.2019 14:10 6,6 C 5,6 C 5,0 C 96 % 1009,7 hPa 0,0 l/m 0 min 0 min 9 W/m 22,5 km/h (4 Bft) 87,23 %
06.12.2019 14:12 6,6 C 5,6 C 5,0 C 96 % 1009,6 hPa 0,0 l/m 0 min 2 min 12 W/m 25,7 km/h (4 Bft) 93,48 %
06.12.2019 14:14 6,6 C 5,6 C 5,0 C 96 % 1009,5 hPa 0,0 l/m 0 min 2 min 12 W/m 25,7 km/h (4 Bft) 93,62 %
06.12.2019 14:16 6,6 C 5,6 C 5,0 C 96 % 1009,5 hPa 0,0 l/m 0 min 2 min 13 W/m 16,1 km/h (3 Bft) 91,49 %
06.12.2019 14:18 6,7 C 5,6 C 5,0 C 96 % 1009,5 hPa 0,0 l/m 0 min 2 min 12 W/m 25,7 km/h (4 Bft) 93,62 %
06.12.2019 14:20 6,7 C 5,6 C 5,0 C 96 % 1009,5 hPa 0,0 l/m 0 min 2 min 10 W/m 12,9 km/h (3 Bft) 93,62 %
06.12.2019 14:22 6,7 C 5,6 C 5,0 C 96 % 1009,4 hPa 0,0 l/m 0 min 2 min 11 W/m 25,7 km/h (4 Bft) 91,49 %
06.12.2019 14:24 6,7 C 5,6 C 5,0 C 96 % 1009,5 hPa 0,2 l/m 0 min 2 min 10 W/m 25,7 km/h (4 Bft) 93,48 %
06.12.2019 14:26 6,7 C 5,6 C 5,0 C 96 % 1009,4 hPa 0,0 l/m 0 min 2 min 10 W/m 22,5 km/h (4 Bft) 91,49 %
06.12.2019 14:28 6,7 C 5,6 C 5,0 C 96 % 1009,5 hPa 0,0 l/m 0 min 2 min 10 W/m 19,3 km/h (3 Bft) 95,74 %
06.12.2019 14:30 6,7 C 5,6 C 5,0 C 96 % 1009,4 hPa 0,0 l/m 0 min 2 min 9 W/m 22,5 km/h (4 Bft) 95,74 %
06.12.2019 14:32 6,8 C 5,6 C 5,0 C 96 % 1009,3 hPa 0,0 l/m 0 min 2 min 10 W/m 22,5 km/h (4 Bft) 95,74 %
06.12.2019 14:34 6,7 C 5,6 C 5,0 C 96 % 1009,4 hPa 0,0 l/m 0 min 2 min 10 W/m 22,5 km/h (4 Bft) 95,74 %
06.12.2019 14:36 6,8 C 5,6 C 5,0 C 96 % 1009,4 hPa 0,0 l/m 0 min 2 min 11 W/m 6,4 km/h (2 Bft) 93,48 %
06.12.2019 14:38 6,8 C 5,6 C 5,0 C 96 % 1009,3 hPa 0,0 l/m 0 min 2 min 11 W/m 16,1 km/h (3 Bft) 95,74 %
06.12.2019 14:40 6,8 C 5,6 C 5,0 C 96 % 1009,3 hPa 0,0 l/m 0 min 2 min 11 W/m 16,1 km/h (3 Bft) 93,62 %
06.12.2019 14:42 6,8 C 5,6 C 5,0 C 96 % 1009,2 hPa 0,0 l/m 0 min 2 min 11 W/m 19,3 km/h (3 Bft) 95,74 %
06.12.2019 14:44 6,8 C 5,6 C 5,0 C 96 % 1009,2 hPa 0,0 l/m 0 min 2 min 10 W/m 19,3 km/h (3 Bft) 93,62 %
06.12.2019 14:46 6,8 C 5,6 C 5,0 C 96 % 1009,2 hPa 0,0 l/m 0 min 2 min 11 W/m 22,5 km/h (4 Bft) 97,87 %
06.12.2019 14:48 6,8 C 5,6 C 5,0 C 96 % 1009,2 hPa 0,0 l/m 0 min 2 min 10 W/m 29,0 km/h (5 Bft) 97,83 %
06.12.2019 14:50 6,8 C 5,6 C 5,0 C 96 % 1009,2 hPa 0,2 l/m 0 min 2 min 9 W/m 25,7 km/h (4 Bft) 97,87 %
06.12.2019 14:52 6,8 C 5,6 C 5,0 C 96 % 1009,1 hPa 0,0 l/m 0 min 2 min 9 W/m 9,7 km/h (2 Bft) 53,49 %
06.12.2019 14:54 6,8 C 5,6 C 5,0 C 96 % 1009,1 hPa 0,0 l/m 0 min 2 min 9 W/m 19,3 km/h (3 Bft) 95,74 %
06.12.2019 14:56 6,8 C 5,6 C 5,0 C 96 % 1009,0 hPa 0,0 l/m 0 min 2 min 8 W/m 22,5 km/h (4 Bft) 97,87 %
06.12.2019 14:58 6,8 C 5,6 C 5,0 C 96 % 1008,9 hPa 0,0 l/m 0 min 2 min 9 W/m 12,9 km/h (3 Bft) 100,00 %
06.12.2019 15:00 6,9 C 5,6 C 5,0 C 96 % 1008,9 hPa 0,0 l/m 0 min 2 min 10 W/m 19,3 km/h (3 Bft) 100,00 %
06.12.2019 15:02 6,9 C 5,6 C 5,0 C 96 % 1008,8 hPa 0,0 l/m 0 min 2 min 11 W/m 19,3 km/h (3 Bft) 97,87 %
06.12.2019 15:04 6,9 C 5,6 C 5,0 C 96 % 1008,7 hPa 0,0 l/m 0 min 2 min 10 W/m 19,3 km/h (3 Bft) 100,00 %
06.12.2019 15:06 6,9 C 5,6 C 5,0 C 96 % 1008,8 hPa 0,0 l/m 0 min 2 min 11 W/m 29,0 km/h (5 Bft) 100,00 %
06.12.2019 15:08 6,9 C 5,6 C 5,0 C 96 % 1008,7 hPa 0,0 l/m 0 min 2 min 12 W/m 22,5 km/h (4 Bft) 100,00 %
06.12.2019 15:10 6,9 C 5,6 C 5,0 C 96 % 1008,7 hPa 0,0 l/m 0 min 2 min 12 W/m 35,4 km/h (5 Bft) 100,00 %
06.12.2019 15:12 6,9 C 5,6 C 5,0 C 96 % 1008,6 hPa 0,0 l/m 0 min 2 min 14 W/m 29,0 km/h (5 Bft) 100,00 %
06.12.2019 15:14 6,9 C 5,6 C 5,0 C 96 % 1008,6 hPa 0,0 l/m 0 min 2 min 14 W/m 38,6 km/h (5 Bft) 100,00 %
06.12.2019 15:16 6,9 C 5,6 C 5,0 C 96 % 1008,5 hPa 0,0 l/m 0 min 2 min 14 W/m 29,0 km/h (5 Bft) 97,87 %
06.12.2019 15:18 6,9 C 5,6 C 5,0 C 96 % 1008,6 hPa 0,0 l/m 0 min 2 min 12 W/m 19,3 km/h (3 Bft) 100,00 %
06.12.2019 15:20 6,9 C 5,6 C 5,0 C 96 % 1008,5 hPa 0,0 l/m 0 min 2 min 12 W/m 32,2 km/h (5 Bft) 100,00 %
06.12.2019 15:22 6,9 C 5,6 C 5,0 C 96 % 1008,5 hPa 0,0 l/m 0 min 2 min 11 W/m 25,7 km/h (4 Bft) 100,00 %
06.12.2019 15:24 6,9 C 5,6 C 5,0 C 96 % 1008,4 hPa 0,0 l/m 0 min 2 min 11 W/m 12,9 km/h (3 Bft) 100,00 %
06.12.2019 15:26 6,9 C 5,6 C 5,0 C 96 % 1008,5 hPa 0,0 l/m 0 min 2 min 12 W/m 38,6 km/h (5 Bft) 100,00 %
06.12.2019 15:28 6,9 C 5,6 C 5,0 C 96 % 1008,4 hPa 0,0 l/m 0 min 2 min 11 W/m 35,4 km/h (5 Bft) 100,00 %
06.12.2019 15:30 6,9 C 5,6 C 5,0 C 96 % 1008,4 hPa 0,0 l/m 0 min 2 min 11 W/m 38,6 km/h (5 Bft) 100,00 %
06.12.2019 15:32 6,9 C 5,6 C 5,0 C 96 % 1008,4 hPa 0,0 l/m 0 min 2 min 12 W/m 29,0 km/h (5 Bft) 100,00 %
06.12.2019 15:34 6,9 C 5,6 C 5,0 C 96 % 1008,3 hPa 0,0 l/m 0 min 2 min 12 W/m 19,3 km/h (3 Bft) 100,00 %
06.12.2019 15:36 6,9 C 5,6 C 5,0 C 96 % 1008,3 hPa 0,0 l/m 0 min 2 min 11 W/m 25,7 km/h (4 Bft) 97,87 %
06.12.2019 15:38 6,9 C 5,6 C 5,0 C 96 % 1008,3 hPa 0,0 l/m 0 min 2 min 11 W/m 19,3 km/h (3 Bft) 100,00 %
06.12.2019 15:40 6,9 C 5,6 C 5,0 C 96 % 1008,2 hPa 0,0 l/m 0 min 2 min 9 W/m 22,5 km/h (4 Bft) 100,00 %
06.12.2019 15:42 6,9 C 5,6 C 5,0 C 96 % 1008,3 hPa 0,0 l/m 0 min 2 min 7 W/m 29,0 km/h (5 Bft) 100,00 %
06.12.2019 15:44 6,9 C 5,6 C 5,0 C 96 % 1008,3 hPa 0,0 l/m 0 min 2 min 7 W/m 19,3 km/h (3 Bft) 97,87 %
06.12.2019 15:46 6,9 C 5,6 C 5,0 C 96 % 1008,2 hPa 0,2 l/m 0 min 2 min 7 W/m 35,4 km/h (5 Bft) 100,00 %
06.12.2019 15:48 6,9 C 5,6 C 5,0 C 96 % 1008,2 hPa 0,0 l/m 0 min 2 min 6 W/m 25,7 km/h (4 Bft) 100,00 %
06.12.2019 15:50 6,9 C 5,6 C 5,0 C 96 % 1008,2 hPa 0,0 l/m 0 min 2 min 5 W/m 38,6 km/h (5 Bft) 100,00 %
06.12.2019 15:52 6,9 C 5,6 C 5,0 C 96 % 1008,2 hPa 0,0 l/m 0 min 2 min 5 W/m 29,0 km/h (5 Bft) 100,00 %
06.12.2019 15:54 6,9 C 5,6 C 5,0 C 96 % 1008,2 hPa 0,0 l/m 0 min 2 min 1 W/m 22,5 km/h (4 Bft) 100,00 %
06.12.2019 15:56 6,9 C 5,6 C 5,0 C 96 % 1008,1 hPa 0,0 l/m 0 min 2 min 0 W/m 25,7 km/h (4 Bft) 100,00 %
06.12.2019 15:58 6,9 C 5,6 C 5,0 C 96 % 1008,1 hPa 0,0 l/m 0 min 0 min 5 W/m 29,0 km/h (5 Bft) 95,74 %
06.12.2019 16:00 6,9 C 5,6 C 5,0 C 96 % 1008,1 hPa 0,0 l/m 0 min 2 min 5 W/m 32,2 km/h (5 Bft) 100,00 %
06.12.2019 16:02 6,9 C 5,6 C 5,0 C 96 % 1008,0 hPa 0,0 l/m 0 min 2 min 5 W/m 22,5 km/h (4 Bft) 100,00 %
06.12.2019 16:04 6,9 C 5,6 C 5,0 C 96 % 1008,0 hPa 0,0 l/m 0 min 2 min 5 W/m 32,2 km/h (5 Bft) 97,87 %
06.12.2019 16:06 6,9 C 5,6 C 5,0 C 96 % 1008,0 hPa 0,0 l/m 0 min 2 min 5 W/m 35,4 km/h (5 Bft) 100,00 %
06.12.2019 16:08 6,9 C 5,6 C 5,0 C 96 % 1008,0 hPa 0,0 l/m 0 min 2 min 5 W/m 22,5 km/h (4 Bft) 100,00 %
06.12.2019 16:10 6,9 C 5,6 C 5,0 C 96 % 1008,0 hPa 0,0 l/m 0 min 2 min 5 W/m 22,5 km/h (4 Bft) 97,87 %
06.12.2019 16:12 6,9 C 5,6 C 5,0 C 96 % 1007,9 hPa 0,0 l/m 0 min 2 min 5 W/m 48,3 km/h (6 Bft) 100,00 %
06.12.2019 16:14 6,9 C 5,6 C 5,0 C 96 % 1008,0 hPa 0,0 l/m 0 min 2 min 3 W/m 29,0 km/h (5 Bft) 97,87 %
06.12.2019 16:16 6,9 C 5,6 C 5,0 C 96 % 1007,9 hPa 0,0 l/m 0 min 2 min 0 W/m 22,5 km/h (4 Bft) 70,21 %
06.12.2019 16:18 6,9 C 5,6 C 5,0 C 96 % 1008,0 hPa 0,0 l/m 0 min 2 min 0 W/m 29,0 km/h (5 Bft) 84,78 %
06.12.2019 16:20 6,9 C 5,6 C 5,0 C 96 % 1007,8 hPa 0,0 l/m 0 min 2 min 0 W/m 35,4 km/h (5 Bft) 97,83 %
06.12.2019 16:22 6,9 C 5,6 C 5,0 C 96 % 1007,9 hPa 0,0 l/m 0 min 2 min 0 W/m 22,5 km/h (4 Bft) 100,00 %
06.12.2019 16:24 6,9 C 5,6 C 5,0 C 96 % 1007,8 hPa 0,0 l/m 0 min 2 min 0 W/m 25,7 km/h (4 Bft) 100,00 %
06.12.2019 16:26 6,9 C 5,6 C 5,0 C 96 % 1007,8 hPa 0,0 l/m 0 min 2 min 0 W/m 25,7 km/h (4 Bft) 100,00 %
06.12.2019 16:28 6,9 C 5,6 C 5,0 C 96 % 1007,7 hPa 0,0 l/m 0 min 2 min 0 W/m 32,2 km/h (5 Bft) 97,87 %
06.12.2019 16:30 6,9 C 5,6 C 5,0 C 96 % 1007,7 hPa 0,0 l/m 0 min 2 min 0 W/m 19,3 km/h (3 Bft) 97,87 %
06.12.2019 16:32 6,9 C 5,6 C 5,0 C 96 % 1007,7 hPa 0,0 l/m 0 min 2 min 0 W/m 45,1 km/h (6 Bft) 97,83 %
06.12.2019 16:34 6,9 C 5,6 C 5,0 C 96 % 1007,7 hPa 0,0 l/m 0 min 2 min 0 W/m 41,8 km/h (6 Bft) 97,87 %
06.12.2019 16:36 6,9 C 5,6 C 5,0 C 96 % 1007,7 hPa 0,0 l/m 0 min 2 min 0 W/m 25,7 km/h (4 Bft) 95,74 %
06.12.2019 16:38 7,0 C 5,6 C 5,0 C 96 % 1007,7 hPa 0,0 l/m 0 min 2 min 0 W/m 29,0 km/h (5 Bft) 89,36 %
06.12.2019 16:40 7,0 C 5,6 C 5,0 C 96 % 1007,7 hPa 0,0 l/m 0 min 2 min 0 W/m 19,3 km/h (3 Bft) 95,74 %
06.12.2019 16:42 7,0 C 5,6 C 5,0 C 96 % 1007,6 hPa 0,0 l/m 0 min 2 min 0 W/m 29,0 km/h (5 Bft) 95,74 %
06.12.2019 16:44 7,0 C 5,6 C 5,0 C 96 % 1007,6 hPa 0,0 l/m 0 min 2 min 0 W/m 32,2 km/h (5 Bft) 91,30 %
06.12.2019 16:46 7,0 C 5,6 C 5,0 C 96 % 1007,5 hPa 0,0 l/m 0 min 2 min 0 W/m 35,4 km/h (5 Bft) 93,62 %
06.12.2019 16:48 7,0 C 5,6 C 5,0 C 96 % 1007,6 hPa 0,0 l/m 0 min 2 min 0 W/m 22,5 km/h (4 Bft) 95,74 %
06.12.2019 16:50 7,0 C 5,6 C 5,0 C 96 % 1007,6 hPa 0,2 l/m 0 min 2 min 0 W/m 32,2 km/h (5 Bft) 95,74 %
06.12.2019 16:52 7,0 C 5,6 C 5,0 C 96 % 1007,6 hPa 0,0 l/m 0 min 2 min 0 W/m 38,6 km/h (5 Bft) 93,62 %
06.12.2019 16:54 7,0 C 5,6 C 5,0 C 96 % 1007,6 hPa 0,0 l/m 0 min 2 min 0 W/m 22,5 km/h (4 Bft) 93,48 %
06.12.2019 16:56 7,0 C 5,6 C 5,0 C 96 % 1007,7 hPa 0,0 l/m 0 min 0 min 0 W/m 32,2 km/h (5 Bft) 95,74 %
06.12.2019 16:58 7,0 C 5,6 C 5,0 C 96 % 1007,6 hPa 0,0 l/m 0 min 2 min 0 W/m 32,2 km/h (5 Bft) 95,74 %
06.12.2019 17:00 7,0 C 5,6 C 5,0 C 96 % 1007,6 hPa 0,0 l/m 0 min 2 min 0 W/m 25,7 km/h (4 Bft) 95,74 %
06.12.2019 17:02 7,1 C 5,6 C 5,0 C 96 % 1007,6 hPa 0,0 l/m 0 min 0 min 0 W/m 19,3 km/h (3 Bft) 93,62 %
06.12.2019 17:04 7,0 C 5,6 C 5,0 C 96 % 1007,6 hPa 0,0 l/m 0 min 2 min 0 W/m 25,7 km/h (4 Bft) 93,62 %
06.12.2019 17:06 7,0 C 5,6 C 5,0 C 96 % 1007,5 hPa 0,0 l/m 0 min 2 min 0 W/m 41,8 km/h (6 Bft) 95,65 %
06.12.2019 17:08 7,1 C 5,6 C 5,0 C 96 % 1007,5 hPa 0,0 l/m 0 min 2 min 0 W/m 32,2 km/h (5 Bft) 95,74 %
06.12.2019 17:10 7,1 C 5,6 C 5,0 C 96 % 1007,5 hPa 0,0 l/m 0 min 2 min 0 W/m 19,3 km/h (3 Bft) 95,74 %
06.12.2019 17:12 7,1 C 5,6 C 5,0 C 96 % 1007,5 hPa 0,0 l/m 0 min 2 min 0 W/m 19,3 km/h (3 Bft) 95,74 %
06.12.2019 17:14 7,1 C 5,6 C 5,0 C 96 % 1007,5 hPa 0,0 l/m 0 min 2 min 0 W/m 38,6 km/h (5 Bft) 95,74 %
06.12.2019 17:16 7,1 C 5,6 C 5,0 C 96 % 1007,6 hPa 0,0 l/m 0 min 2 min 0 W/m 25,7 km/h (4 Bft) 95,74 %
06.12.2019 17:18 7,1 C 5,6 C 5,0 C 96 % 1007,5 hPa 0,0 l/m 0 min 2 min 0 W/m 35,4 km/h (5 Bft) 95,65 %
06.12.2019 17:20 7,1 C 5,6 C 5,0 C 96 % 1007,6 hPa 0,0 l/m 0 min 2 min 0 W/m 29,0 km/h (5 Bft) 95,74 %
06.12.2019 17:22 7,1 C 5,6 C 5,0 C 96 % 1007,5 hPa 0,0 l/m 0 min 2 min 0 W/m 29,0 km/h (5 Bft) 97,87 %
06.12.2019 17:24 7,1 C 5,6 C 5,0 C 96 % 1007,5 hPa 0,0 l/m 0 min 2 min 0 W/m 29,0 km/h (5 Bft) 97,87 %
06.12.2019 17:26 7,1 C 5,6 C 5,0 C 96 % 1007,5 hPa 0,0 l/m 0 min 2 min 0 W/m 25,7 km/h (4 Bft) 97,87 %
06.12.2019 17:28 7,1 C 5,6 C 5,0 C 96 % 1007,5 hPa 0,0 l/m 0 min 2 min 0 W/m 32,2 km/h (5 Bft) 95,74 %
06.12.2019 17:30 7,1 C 5,6 C 5,6 C 96 % 1007,4 hPa 0,0 l/m 0 min 2 min 0 W/m 35,4 km/h (5 Bft) 97,83 %
06.12.2019 17:32 7,1 C 5,6 C 5,6 C 96 % 1007,4 hPa 0,0 l/m 0 min 2 min 0 W/m 25,7 km/h (4 Bft) 97,87 %
06.12.2019 17:34 7,1 C 5,6 C 5,6 C 96 % 1007,3 hPa 0,0 l/m 0 min 2 min 0 W/m 32,2 km/h (5 Bft) 97,87 %
06.12.2019 17:36 7,1 C 5,6 C 5,6 C 96 % 1007,3 hPa 0,0 l/m 0 min 0 min 0 W/m 29,0 km/h (5 Bft) 97,87 %
06.12.2019 17:38 7,1 C 5,6 C 5,6 C 96 % 1007,3 hPa 0,0 l/m 0 min 0 min 0 W/m 32,2 km/h (5 Bft) 97,87 %
06.12.2019 17:40 7,1 C 5,6 C 5,6 C 96 % 1007,3 hPa 0,0 l/m 0 min 0 min 0 W/m 25,7 km/h (4 Bft) 97,87 %
06.12.2019 17:42 7,1 C 5,6 C 5,6 C 96 % 1007,5 hPa 0,0 l/m 0 min 0 min 0 W/m 29,0 km/h (5 Bft) 95,65 %
06.12.2019 17:44 7,1 C 5,6 C 5,6 C 96 % 1007,4 hPa 0,0 l/m 0 min 0 min 0 W/m 25,7 km/h (4 Bft) 97,87 %
06.12.2019 17:46 7,1 C 5,6 C 5,6 C 96 % 1007,4 hPa 0,0 l/m 0 min 0 min 0 W/m 22,5 km/h (4 Bft) 95,74 %
06.12.2019 17:48 7,1 C 5,6 C 5,6 C 96 % 1007,4 hPa 0,0 l/m 0 min 0 min 0 W/m 29,0 km/h (5 Bft) 97,87 %
06.12.2019 17:50 7,1 C 6,1 C 5,6 C 96 % 1007,4 hPa 0,0 l/m 0 min 0 min 0 W/m 38,6 km/h (5 Bft) 97,87 %
06.12.2019 17:52 7,1 C 6,1 C 5,6 C 97 % 1007,3 hPa 0,0 l/m 0 min 0 min 0 W/m 32,2 km/h (5 Bft) 97,87 %
06.12.2019 17:54 7,1 C 6,1 C 5,6 C 97 % 1007,3 hPa 0,0 l/m 0 min 0 min 0 W/m 41,8 km/h (6 Bft) 97,83 %
06.12.2019 17:56 7,1 C 6,1 C 5,6 C 97 % 1007,4 hPa 0,0 l/m 0 min 0 min 0 W/m 22,5 km/h (4 Bft) 97,87 %
06.12.2019 17:58 7,1 C 6,1 C 5,6 C 97 % 1007,3 hPa 0,0 l/m 0 min 0 min 0 W/m 35,4 km/h (5 Bft) 97,87 %
06.12.2019 18:00 7,1 C 6,1 C 5,6 C 97 % 1007,3 hPa 0,0 l/m 0 min 0 min 0 W/m 38,6 km/h (5 Bft) 97,87 %
06.12.2019 18:02 7,1 C 6,1 C 5,6 C 97 % 1007,3 hPa 0,0 l/m 0 min 0 min 0 W/m 29,0 km/h (5 Bft) 97,87 %
06.12.2019 18:04 7,1 C 6,1 C 5,6 C 97 % 1007,3 hPa 0,0 l/m 0 min 0 min 0 W/m 35,4 km/h (5 Bft) 95,65 %
06.12.2019 18:08 7,1 C 6,1 C 5,6 C 97 % 1007,3 hPa 0,0 l/m 0 min 4 min 0 W/m 32,2 km/h (5 Bft) 97,87 %
06.12.2019 18:10 7,1 C 6,1 C 5,6 C 97 % 1007,3 hPa 0,0 l/m 0 min 2 min 0 W/m 38,6 km/h (5 Bft) 97,87 %
06.12.2019 18:12 7,1 C 6,1 C 5,6 C 97 % 1007,2 hPa 0,0 l/m 0 min 2 min 0 W/m 25,7 km/h (4 Bft) 97,87 %
06.12.2019 18:14 7,1 C 6,1 C 5,6 C 97 % 1007,3 hPa 0,0 l/m 0 min 2 min 0 W/m 25,7 km/h (4 Bft) 97,87 %
06.12.2019 18:16 7,1 C 6,1 C 5,6 C 97 % 1007,3 hPa 0,0 l/m 0 min 2 min 0 W/m 25,7 km/h (4 Bft) 97,83 %
06.12.2019 18:18 7,1 C 6,1 C 5,6 C 97 % 1007,3 hPa 0,0 l/m 0 min 2 min 0 W/m 22,5 km/h (4 Bft) 97,87 %
06.12.2019 18:20 7,1 C 6,1 C 5,6 C 97 % 1007,2 hPa 0,0 l/m 0 min 2 min 0 W/m 38,6 km/h (5 Bft) 100,00 %
06.12.2019 18:22 7,1 C 6,1 C 5,6 C 97 % 1007,2 hPa 0,0 l/m 0 min 2 min 0 W/m 22,5 km/h (4 Bft) 100,00 %
06.12.2019 18:24 7,1 C 5,6 C 5,6 C 97 % 1007,2 hPa 0,0 l/m 0 min 2 min 0 W/m 22,5 km/h (4 Bft) 100,00 %
06.12.2019 18:26 7,1 C 5,6 C 5,6 C 97 % 1007,2 hPa 0,0 l/m 0 min 2 min 0 W/m 38,6 km/h (5 Bft) 100,00 %
06.12.2019 18:28 7,1 C 5,6 C 5,6 C 97 % 1007,1 hPa 0,0 l/m 0 min 2 min 0 W/m 32,2 km/h (5 Bft) 97,83 %
06.12.2019 18:30 7,1 C 5,6 C 5,6 C 97 % 1007,1 hPa 0,0 l/m 0 min 2 min 0 W/m 25,7 km/h (4 Bft) 100,00 %
06.12.2019 18:32 7,1 C 5,6 C 5,6 C 97 % 1007,1 hPa 0,2 l/m 0 min 2 min 0 W/m 25,7 km/h (4 Bft) 100,00 %
06.12.2019 18:34 7,1 C 5,6 C 5,6 C 97 % 1007,1 hPa 0,0 l/m 0 min 2 min 0 W/m 48,3 km/h (6 Bft) 97,87 %
06.12.2019 18:36 7,1 C 5,6 C 5,6 C 97 % 1007,1 hPa 0,0 l/m 0 min 0 min 0 W/m 45,1 km/h (6 Bft) 100,00 %
06.12.2019 18:38 7,1 C 5,6 C 5,6 C 97 % 1007,0 hPa 0,0 l/m 0 min 2 min 0 W/m 32,2 km/h (5 Bft) 100,00 %
06.12.2019 18:40 7,1 C 5,6 C 5,6 C 97 % 1007,0 hPa 0,0 l/m 0 min 2 min 0 W/m 29,0 km/h (5 Bft) 100,00 %
06.12.2019 18:42 7,1 C 5,6 C 5,6 C 97 % 1007,1 hPa 0,0 l/m 0 min 2 min 0 W/m 25,7 km/h (4 Bft) 100,00 %
06.12.2019 18:44 7,0 C 5,6 C 5,6 C 97 % 1007,0 hPa 0,0 l/m 0 min 2 min 0 W/m 32,2 km/h (5 Bft) 100,00 %
06.12.2019 18:46 7,0 C 5,6 C 5,0 C 97 % 1007,1 hPa 0,0 l/m 0 min 2 min 0 W/m 38,6 km/h (5 Bft) 100,00 %
06.12.2019 18:48 7,0 C 5,6 C 5,0 C 97 % 1007,0 hPa 0,0 l/m 0 min 2 min 0 W/m 19,3 km/h (3 Bft) 100,00 %
06.12.2019 18:50 7,0 C 5,6 C 5,0 C 97 % 1007,0 hPa 0,0 l/m 0 min 2 min 0 W/m 25,7 km/h (4 Bft) 100,00 %
06.12.2019 18:52 6,9 C 5,6 C 5,0 C 97 % 1007,0 hPa 0,0 l/m 0 min 2 min 0 W/m 25,7 km/h (4 Bft) 100,00 %
06.12.2019 18:54 6,9 C 5,6 C 5,0 C 97 % 1007,0 hPa 0,2 l/m 0 min 0 min 0 W/m 35,4 km/h (5 Bft) 100,00 %
06.12.2019 18:56 6,9 C 5,6 C 5,0 C 97 % 1007,0 hPa 0,0 l/m 0 min 0 min 0 W/m 35,4 km/h (5 Bft) 100,00 %
06.12.2019 18:58 6,9 C 5,6 C 5,0 C 97 % 1007,0 hPa 0,0 l/m 0 min 0 min 0 W/m 51,5 km/h (7 Bft) 97,87 %
06.12.2019 19:00 6,9 C 5,6 C 5,0 C 97 % 1007,0 hPa 0,0 l/m 0 min 0 min 0 W/m 38,6 km/h (5 Bft) 100,00 %
06.12.2019 19:02 6,9 C 5,6 C 5,0 C 97 % 1007,0 hPa 0,0 l/m 0 min 2 min 0 W/m 41,8 km/h (6 Bft) 97,83 %
06.12.2019 19:04 6,9 C 5,6 C 5,0 C 97 % 1007,0 hPa 0,0 l/m 0 min 0 min 0 W/m 25,7 km/h (4 Bft) 97,87 %
06.12.2019 19:06 6,9 C 5,6 C 5,0 C 97 % 1007,1 hPa 0,0 l/m 0 min 0 min 0 W/m 29,0 km/h (5 Bft) 97,87 %
06.12.2019 19:08 6,9 C 5,6 C 5,0 C 97 % 1007,0 hPa 0,0 l/m 0 min 2 min 0 W/m 22,5 km/h (4 Bft) 100,00 %
06.12.2019 19:10 6,8 C 5,6 C 5,0 C 97 % 1007,0 hPa 0,0 l/m 0 min 2 min 0 W/m 29,0 km/h (5 Bft) 100,00 %
06.12.2019 19:12 6,8 C 5,6 C 5,0 C 97 % 1007,0 hPa 0,0 l/m 0 min 2 min 0 W/m 22,5 km/h (4 Bft) 97,87 %
06.12.2019 19:14 6,8 C 5,6 C 5,0 C 97 % 1007,0 hPa 0,0 l/m 0 min 2 min 0 W/m 32,2 km/h (5 Bft) 95,65 %
06.12.2019 19:16 6,8 C 5,6 C 5,0 C 97 % 1007,0 hPa 0,0 l/m 0 min 2 min 0 W/m 32,2 km/h (5 Bft) 91,49 %
06.12.2019 19:18 6,8 C 5,6 C 5,0 C 97 % 1007,0 hPa 0,0 l/m 0 min 0 min 0 W/m 32,2 km/h (5 Bft) 97,87 %
06.12.2019 19:20 6,8 C 5,6 C 5,0 C 97 % 1007,0 hPa 0,0 l/m 0 min 0 min 0 W/m 29,0 km/h (5 Bft) 95,74 %
06.12.2019 19:22 6,8 C 5,6 C 5,0 C 97 % 1007,0 hPa 0,0 l/m 0 min 2 min 0 W/m 35,4 km/h (5 Bft) 91,49 %
06.12.2019 19:24 6,8 C 5,6 C 5,0 C 97 % 1007,0 hPa 0,0 l/m 0 min 2 min 0 W/m 29,0 km/h (5 Bft) 95,74 %
06.12.2019 19:26 6,8 C 5,6 C 5,0 C 97 % 1007,0 hPa 0,0 l/m 0 min 2 min 0 W/m 25,7 km/h (4 Bft) 93,48 %
06.12.2019 19:28 6,8 C 5,6 C 5,0 C 97 % 1006,9 hPa 0,0 l/m 0 min 2 min 0 W/m 25,7 km/h (4 Bft) 91,49 %
06.12.2019 19:30 6,8 C 5,6 C 5,0 C 97 % 1006,9 hPa 0,0 l/m 0 min 2 min 0 W/m 25,7 km/h (4 Bft) 95,74 %
06.12.2019 19:32 6,8 C 5,6 C 5,0 C 98 % 1006,9 hPa 0,0 l/m 0 min 2 min 0 W/m 32,2 km/h (5 Bft) 95,74 %
06.12.2019 19:34 6,7 C 5,6 C 5,0 C 98 % 1006,9 hPa 0,0 l/m 0 min 0 min 0 W/m 29,0 km/h (5 Bft) 95,74 %
06.12.2019 19:36 6,7 C 5,6 C 5,0 C 98 % 1006,9 hPa 0,0 l/m 0 min 0 min 0 W/m 25,7 km/h (4 Bft) 95,74 %
06.12.2019 19:38 6,7 C 5,6 C 5,0 C 98 % 1006,9 hPa 0,0 l/m 0 min 2 min 0 W/m 32,2 km/h (5 Bft) 93,48 %
06.12.2019 19:40 6,7 C 5,6 C 5,0 C 98 % 1006,9 hPa 0,0 l/m 0 min 2 min 0 W/m 29,0 km/h (5 Bft) 95,74 %
06.12.2019 19:42 6,7 C 5,6 C 5,0 C 98 % 1007,0 hPa 0,0 l/m 0 min 0 min 0 W/m 25,7 km/h (4 Bft) 93,62 %
06.12.2019 19:44 6,7 C 5,6 C 5,0 C 98 % 1006,9 hPa 0,0 l/m 0 min 0 min 0 W/m 25,7 km/h (4 Bft) 95,74 %
06.12.2019 19:46 6,7 C 5,6 C 5,0 C 98 % 1006,9 hPa 0,0 l/m 0 min 0 min 0 W/m 25,7 km/h (4 Bft) 95,74 %
06.12.2019 19:48 6,7 C 5,6 C 5,0 C 98 % 1006,9 hPa 0,0 l/m 0 min 0 min 0 W/m 19,3 km/h (3 Bft) 95,65 %
06.12.2019 19:50 6,7 C 5,6 C 5,0 C 98 % 1006,8 hPa 0,0 l/m 0 min 0 min 0 W/m 29,0 km/h (5 Bft) 95,74 %
06.12.2019 19:52 6,7 C 5,6 C 5,0 C 98 % 1006,8 hPa 0,0 l/m 0 min 0 min 0 W/m 29,0 km/h (5 Bft) 95,74 %
06.12.2019 19:54 6,7 C 5,6 C 5,0 C 98 % 1006,8 hPa 0,0 l/m 0 min 0 min 0 W/m 32,2 km/h (5 Bft) 95,74 %
06.12.2019 19:56 6,7 C 5,6 C 5,0 C 98 % 1006,8 hPa 0,0 l/m 0 min 0 min 0 W/m 32,2 km/h (5 Bft) 95,74 %
06.12.2019 19:58 6,7 C 5,6 C 5,0 C 98 % 1006,8 hPa 0,0 l/m 0 min 0 min 0 W/m 29,0 km/h (5 Bft) 95,74 %
06.12.2019 20:00 6,7 C 5,6 C 5,0 C 98 % 1006,8 hPa 0,0 l/m 0 min 0 min 0 W/m 38,6 km/h (5 Bft) 97,87 %
06.12.2019 20:02 6,7 C 5,6 C 5,0 C 98 % 1006,7 hPa 0,0 l/m 0 min 0 min 0 W/m 32,2 km/h (5 Bft) 97,83 %
06.12.2019 20:04 6,7 C 5,6 C 5,0 C 98 % 1006,7 hPa 0,0 l/m 0 min 0 min 0 W/m 25,7 km/h (4 Bft) 97,87 %
06.12.2019 20:06 6,7 C 5,6 C 5,0 C 98 % 1006,7 hPa 0,0 l/m 0 min 0 min 0 W/m 32,2 km/h (5 Bft) 97,87 %
06.12.2019 20:08 6,7 C 5,6 C 5,0 C 98 % 1006,7 hPa 0,2 l/m 0 min 2 min 0 W/m 32,2 km/h (5 Bft) 97,87 %
06.12.2019 20:10 6,7 C 5,6 C 5,0 C 98 % 1006,7 hPa 0,0 l/m 0 min 0 min 0 W/m 25,7 km/h (4 Bft) 97,87 %
06.12.2019 20:12 6,7 C 5,6 C 5,0 C 98 % 1006,7 hPa 0,0 l/m 0 min 0 min 0 W/m 29,0 km/h (5 Bft) 97,83 %
06.12.2019 20:14 6,7 C 5,6 C 5,0 C 98 % 1006,6 hPa 0,0 l/m 0 min 0 min 0 W/m 22,5 km/h (4 Bft) 95,74 %
06.12.2019 20:16 6,7 C 5,6 C 5,0 C 98 % 1006,7 hPa 0,0 l/m 0 min 0 min 0 W/m 16,1 km/h (3 Bft) 97,87 %
06.12.2019 20:18 6,7 C 5,6 C 5,0 C 98 % 1006,6 hPa 0,0 l/m 0 min 0 min 0 W/m 35,4 km/h (5 Bft) 100,00 %
06.12.2019 20:20 6,7 C 5,6 C 5,0 C 98 % 1006,6 hPa 0,0 l/m 0 min 0 min 0 W/m 29,0 km/h (5 Bft) 100,00 %
06.12.2019 20:22 6,7 C 5,6 C 5,0 C 98 % 1006,6 hPa 0,0 l/m 0 min 0 min 0 W/m 29,0 km/h (5 Bft) 100,00 %
06.12.2019 20:24 6,7 C 5,6 C 5,0 C 98 % 1006,6 hPa 0,0 l/m 0 min 0 min 0 W/m 29,0 km/h (5 Bft) 100,00 %
06.12.2019 20:26 6,7 C 5,6 C 5,0 C 98 % 1006,6 hPa 0,0 l/m 0 min 0 min 0 W/m 32,2 km/h (5 Bft) 97,87 %
06.12.2019 20:28 6,7 C 5,6 C 5,0 C 98 % 1006,6 hPa 0,0 l/m 0 min 0 min 0 W/m 25,7 km/h (4 Bft) 100,00 %
06.12.2019 20:30 6,7 C 5,6 C 5,0 C 98 % 1006,6 hPa 0,0 l/m 0 min 0 min 0 W/m 35,4 km/h (5 Bft) 100,00 %
06.12.2019 20:32 6,7 C 5,6 C 5,0 C 98 % 1006,5 hPa 0,0 l/m 0 min 0 min 0 W/m 25,7 km/h (4 Bft) 97,87 %
06.12.2019 20:34 6,7 C 5,6 C 5,0 C 98 % 1006,6 hPa 0,0 l/m 0 min 0 min 0 W/m 29,0 km/h (5 Bft) 100,00 %
06.12.2019 20:36 6,7 C 5,6 C 5,0 C 98 % 1006,4 hPa 0,0 l/m 0 min 0 min 0 W/m 32,2 km/h (5 Bft) 100,00 %
06.12.2019 20:38 6,7 C 5,6 C 5,0 C 98 % 1006,5 hPa 0,0 l/m 0 min 0 min 0 W/m 25,7 km/h (4 Bft) 97,87 %
06.12.2019 20:40 6,7 C 5,6 C 5,0 C 98 % 1006,6 hPa 0,0 l/m 0 min 0 min 0 W/m 35,4 km/h (5 Bft) 97,87 %
06.12.2019 20:42 6,7 C 5,6 C 5,0 C 98 % 1006,5 hPa 0,0 l/m 0 min 0 min 0 W/m 45,1 km/h (6 Bft) 97,87 %
06.12.2019 20:44 6,7 C 5,6 C 5,0 C 98 % 1006,5 hPa 0,0 l/m 0 min 0 min 0 W/m 35,4 km/h (5 Bft) 97,87 %
06.12.2019 20:46 6,7 C 5,6 C 5,6 C 98 % 1006,5 hPa 0,0 l/m 0 min 0 min 0 W/m 29,0 km/h (5 Bft) 97,87 %
06.12.2019 20:48 6,7 C 5,6 C 5,6 C 98 % 1006,4 hPa 0,0 l/m 0 min 0 min 0 W/m 25,7 km/h (4 Bft) 97,83 %
06.12.2019 20:50 6,7 C 5,6 C 5,0 C 98 % 1006,4 hPa 0,0 l/m 0 min 0 min 0 W/m 45,1 km/h (6 Bft) 97,87 %
06.12.2019 20:52 6,7 C 5,6 C 5,0 C 98 % 1006,4 hPa 0,0 l/m 0 min 0 min 0 W/m 25,7 km/h (4 Bft) 97,87 %
06.12.2019 20:54 6,7 C 5,6 C 5,6 C 98 % 1006,5 hPa 0,0 l/m 0 min 0 min 0 W/m 41,8 km/h (6 Bft) 95,74 %
06.12.2019 20:56 6,8 C 5,6 C 5,0 C 98 % 1006,5 hPa 0,0 l/m 0 min 0 min 0 W/m 35,4 km/h (5 Bft) 97,87 %
06.12.2019 20:58 6,8 C 5,6 C 5,0 C 98 % 1006,5 hPa 0,0 l/m 0 min 0 min 0 W/m 32,2 km/h (5 Bft) 97,87 %
06.12.2019 21:00 6,8 C 5,6 C 5,0 C 98 % 1006,5 hPa 0,0 l/m 0 min 0 min 0 W/m 29,0 km/h (5 Bft) 97,83 %
06.12.2019 21:02 6,8 C 5,6 C 5,0 C 98 % 1006,5 hPa 0,0 l/m 0 min 0 min 0 W/m 25,7 km/h (4 Bft) 97,87 %
06.12.2019 21:04 6,8 C 5,6 C 5,0 C 98 % 1006,6 hPa 0,0 l/m 0 min 0 min 0 W/m 22,5 km/h (4 Bft) 97,87 %
06.12.2019 21:06 6,8 C 5,6 C 5,0 C 98 % 1006,4 hPa 0,0 l/m 0 min 0 min 0 W/m 25,7 km/h (4 Bft) 97,87 %
06.12.2019 21:08 6,8 C 5,6 C 5,0 C 98 % 1006,4 hPa 0,0 l/m 0 min 0 min 0 W/m 29,0 km/h (5 Bft) 97,87 %
06.12.2019 21:10 6,8 C 5,6 C 5,0 C 98 % 1006,4 hPa 0,0 l/m 0 min 0 min 0 W/m 38,6 km/h (5 Bft) 95,65 %
06.12.2019 21:12 6,8 C 5,6 C 5,0 C 98 % 1006,3 hPa 0,0 l/m 0 min 0 min 0 W/m 32,2 km/h (5 Bft) 95,74 %
06.12.2019 21:14 6,8 C 5,6 C 5,0 C 98 % 1006,3 hPa 0,0 l/m 0 min 0 min 0 W/m 35,4 km/h (5 Bft) 95,74 %
06.12.2019 21:16 6,8 C 5,6 C 5,0 C 98 % 1006,3 hPa 0,0 l/m 0 min 0 min 0 W/m 25,7 km/h (4 Bft) 97,87 %
06.12.2019 21:18 6,8 C 5,6 C 5,0 C 98 % 1006,3 hPa 0,0 l/m 0 min 0 min 0 W/m 22,5 km/h (4 Bft) 97,87 %
06.12.2019 21:20 6,8 C 5,6 C 5,0 C 98 % 1006,3 hPa 0,0 l/m 0 min 2 min 0 W/m 32,2 km/h (5 Bft) 95,74 %
06.12.2019 21:22 6,8 C 5,6 C 5,0 C 98 % 1006,3 hPa 0,0 l/m 0 min 2 min 0 W/m 38,6 km/h (5 Bft) 95,65 %
06.12.2019 21:24 6,8 C 5,6 C 5,0 C 98 % 1006,2 hPa 0,0 l/m 0 min 0 min 0 W/m 22,5 km/h (4 Bft) 93,62 %
06.12.2019 21:26 6,8 C 5,6 C 5,6 C 98 % 1006,3 hPa 0,0 l/m 0 min 0 min 0 W/m 22,5 km/h (4 Bft) 97,87 %
06.12.2019 21:28 6,9 C 5,6 C 5,6 C 98 % 1006,2 hPa 0,0 l/m 0 min 0 min 0 W/m 29,0 km/h (5 Bft) 95,74 %
06.12.2019 21:30 6,9 C 5,6 C 5,6 C 98 % 1006,2 hPa 0,0 l/m 0 min 0 min 0 W/m 29,0 km/h (5 Bft) 97,87 %
06.12.2019 21:32 6,9 C 6,1 C 5,6 C 98 % 1006,2 hPa 0,0 l/m 0 min 2 min 0 W/m 25,7 km/h (4 Bft) 97,87 %
06.12.2019 21:34 6,9 C 6,1 C 5,6 C 98 % 1006,1 hPa 0,0 l/m 0 min 0 min 0 W/m 22,5 km/h (4 Bft) 97,83 %
06.12.2019 21:36 6,9 C 6,1 C 5,6 C 98 % 1006,2 hPa 0,0 l/m 0 min 0 min 0 W/m 22,5 km/h (4 Bft) 100,00 %
06.12.2019 21:38 6,9 C 6,1 C 5,6 C 98 % 1006,1 hPa 0,0 l/m 0 min 0 min 0 W/m 25,7 km/h (4 Bft) 100,00 %
06.12.2019 21:40 7,0 C 6,1 C 5,6 C 98 % 1006,2 hPa 0,0 l/m 0 min 0 min 0 W/m 25,7 km/h (4 Bft) 100,00 %
06.12.2019 21:42 7,0 C 6,1 C 5,6 C 98 % 1006,2 hPa 0,0 l/m 0 min 0 min 0 W/m 22,5 km/h (4 Bft) 100,00 %
06.12.2019 21:44 7,0 C 6,1 C 5,6 C 98 % 1006,3 hPa 0,0 l/m 0 min 0 min 0 W/m 19,3 km/h (3 Bft) 100,00 %
06.12.2019 21:46 7,1 C 6,1 C 5,6 C 98 % 1006,2 hPa 0,0 l/m 0 min 0 min 0 W/m 29,0 km/h (5 Bft) 95,65 %
06.12.2019 21:48 7,1 C 6,1 C 5,6 C 98 % 1006,2 hPa 0,0 l/m 0 min 0 min 0 W/m 32,2 km/h (5 Bft) 97,87 %
06.12.2019 21:50 7,1 C 6,1 C 5,6 C 98 % 1006,2 hPa 0,0 l/m 0 min 0 min 0 W/m 38,6 km/h (5 Bft) 93,62 %
06.12.2019 21:52 7,1 C 6,1 C 5,6 C 98 % 1006,2 hPa 0,0 l/m 0 min 0 min 0 W/m 48,3 km/h (6 Bft) 97,87 %
06.12.2019 21:54 7,2 C 6,1 C 5,6 C 98 % 1006,2 hPa 0,0 l/m 0 min 0 min 0 W/m 54,7 km/h (7 Bft) 95,74 %
06.12.2019 21:56 7,2 C 6,1 C 5,6 C 98 % 1006,2 hPa 0,0 l/m 0 min 0 min 0 W/m 35,4 km/h (5 Bft) 97,83 %
06.12.2019 21:58 7,3 C 6,1 C 5,6 C 98 % 1006,1 hPa 0,0 l/m 0 min 0 min 0 W/m 29,0 km/h (5 Bft) 95,74 %
06.12.2019 22:00 7,3 C 6,7 C 6,1 C 98 % 1006,1 hPa 0,0 l/m 0 min 0 min 0 W/m 45,1 km/h (6 Bft) 97,87 %
06.12.2019 22:02 7,3 C 6,7 C 6,1 C 98 % 1006,0 hPa 0,0 l/m 0 min 0 min 0 W/m 25,7 km/h (4 Bft) 48,84 %
06.12.2019 22:04 7,4 C 6,7 C 6,1 C 98 % 1006,0 hPa 0,0 l/m 0 min 0 min 0 W/m 35,4 km/h (5 Bft) 95,74 %
06.12.2019 22:06 7,4 C 6,7 C 6,1 C 98 % 1006,1 hPa 0,0 l/m 0 min 0 min 0 W/m 32,2 km/h (5 Bft) 95,74 %
06.12.2019 22:08 7,4 C 6,7 C 6,1 C 98 % 1006,0 hPa 0,0 l/m 0 min 0 min 0 W/m 41,8 km/h (6 Bft) 95,65 %
06.12.2019 22:10 7,4 C 6,7 C 6,1 C 98 % 1005,9 hPa 0,0 l/m 0 min 0 min 0 W/m 35,4 km/h (5 Bft) 95,74 %
06.12.2019 22:12 7,5 C 6,7 C 6,1 C 98 % 1006,0 hPa 0,0 l/m 0 min 0 min 0 W/m 38,6 km/h (5 Bft) 95,74 %
06.12.2019 22:14 7,5 C 6,7 C 6,1 C 97 % 1005,9 hPa 0,0 l/m 0 min 0 min 0 W/m 29,0 km/h (5 Bft) 93,62 %
06.12.2019 22:16 7,6 C 6,7 C 6,1 C 97 % 1006,0 hPa 0,0 l/m 0 min 0 min 0 W/m 32,2 km/h (5 Bft) 97,87 %
06.12.2019 22:18 7,6 C 6,7 C 6,1 C 97 % 1005,9 hPa 0,0 l/m 0 min 0 min 0 W/m 22,5 km/h (4 Bft) 95,74 %
06.12.2019 22:20 7,6 C 6,7 C 6,1 C 97 % 1005,8 hPa 0,0 l/m 0 min 0 min 0 W/m 45,1 km/h (6 Bft) 95,65 %
06.12.2019 22:22 7,6 C 6,7 C 6,1 C 97 % 1005,8 hPa 0,0 l/m 0 min 0 min 0 W/m 32,2 km/h (5 Bft) 95,74 %
06.12.2019 22:24 7,6 C 6,7 C 6,1 C 97 % 1005,9 hPa 0,0 l/m 0 min 0 min 0 W/m 22,5 km/h (4 Bft) 95,74 %
06.12.2019 22:26 7,7 C 6,7 C 6,1 C 97 % 1006,0 hPa 0,0 l/m 0 min 0 min 0 W/m 41,8 km/h (6 Bft) 95,74 %
06.12.2019 22:28 7,7 C 6,7 C 6,1 C 97 % 1006,0 hPa 0,0 l/m 0 min 0 min 0 W/m 38,6 km/h (5 Bft) 93,62 %
06.12.2019 22:30 7,7 C 6,7 C 6,1 C 97 % 1005,9 hPa 0,0 l/m 0 min 0 min 0 W/m 25,7 km/h (4 Bft) 97,87 %
06.12.2019 22:32 7,7 C 6,7 C 6,1 C 96 % 1006,0 hPa 0,0 l/m 0 min 0 min 0 W/m 41,8 km/h (6 Bft) 97,83 %
06.12.2019 22:34 7,7 C 6,7 C 6,1 C 96 % 1005,9 hPa 0,0 l/m 0 min 0 min 0 W/m 29,0 km/h (5 Bft) 97,87 %
06.12.2019 22:36 7,7 C 6,7 C 6,1 C 97 % 1005,9 hPa 0,0 l/m 0 min 0 min 0 W/m 29,0 km/h (5 Bft) 97,87 %
06.12.2019 22:38 7,7 C 6,7 C 6,1 C 96 % 1005,9 hPa 0,0 l/m 0 min 0 min 0 W/m 29,0 km/h (5 Bft) 97,87 %
06.12.2019 22:40 7,8 C 6,7 C 6,1 C 96 % 1005,9 hPa 0,0 l/m 0 min 0 min 0 W/m 29,0 km/h (5 Bft) 97,87 %
06.12.2019 22:42 7,8 C 6,7 C 6,1 C 96 % 1006,0 hPa 0,0 l/m 0 min 0 min 0 W/m 32,2 km/h (5 Bft) 97,87 %
06.12.2019 22:44 7,8 C 6,7 C 6,1 C 96 % 1005,9 hPa 0,0 l/m 0 min 2 min 0 W/m 29,0 km/h (5 Bft) 95,65 %
06.12.2019 22:46 7,8 C 6,7 C 6,1 C 96 % 1005,9 hPa 0,0 l/m 0 min 2 min 0 W/m 25,7 km/h (4 Bft) 97,87 %
06.12.2019 22:48 7,8 C 6,7 C 6,1 C 96 % 1005,9 hPa 0,0 l/m 0 min 2 min 0 W/m 25,7 km/h (4 Bft) 97,87 %
06.12.2019 22:50 7,8 C 6,7 C 6,1 C 96 % 1005,9 hPa 0,0 l/m 0 min 2 min 0 W/m 35,4 km/h (5 Bft) 97,87 %
06.12.2019 22:52 7,8 C 6,7 C 6,1 C 96 % 1005,9 hPa 0,0 l/m 0 min 2 min 0 W/m 29,0 km/h (5 Bft) 97,87 %
06.12.2019 22:54 7,8 C 6,7 C 6,1 C 96 % 1005,9 hPa 0,0 l/m 0 min 2 min 0 W/m 29,0 km/h (5 Bft) 97,83 %
06.12.2019 22:56 7,8 C 6,7 C 6,1 C 96 % 1006,0 hPa 0,0 l/m 0 min 2 min 0 W/m 25,7 km/h (4 Bft) 97,87 %
06.12.2019 22:58 7,7 C 6,7 C 6,1 C 96 % 1005,9 hPa 0,0 l/m 0 min 2 min 0 W/m 19,3 km/h (3 Bft) 97,87 %
06.12.2019 23:00 7,7 C 6,7 C 6,1 C 96 % 1005,9 hPa 0,0 l/m 0 min 2 min 0 W/m 51,5 km/h (7 Bft) 95,74 %
06.12.2019 23:02 7,7 C 6,7 C 6,1 C 96 % 1005,9 hPa 0,0 l/m 0 min 2 min 0 W/m 22,5 km/h (4 Bft) 97,87 %
06.12.2019 23:04 7,7 C 6,7 C 6,1 C 96 % 1005,8 hPa 0,0 l/m 0 min 2 min 0 W/m 38,6 km/h (5 Bft) 97,87 %
06.12.2019 23:06 7,8 C 6,7 C 6,1 C 96 % 1005,9 hPa 0,0 l/m 0 min 2 min 0 W/m 35,4 km/h (5 Bft) 95,74 %
06.12.2019 23:08 7,8 C 6,7 C 6,1 C 96 % 1005,8 hPa 0,0 l/m 0 min 2 min 0 W/m 29,0 km/h (5 Bft) 97,83 %
06.12.2019 23:10 7,8 C 6,7 C 6,1 C 96 % 1005,9 hPa 0,0 l/m 0 min 2 min 0 W/m 32,2 km/h (5 Bft) 97,87 %
06.12.2019 23:12 7,8 C 6,7 C 6,1 C 96 % 1005,8 hPa 0,0 l/m 0 min 2 min 0 W/m 35,4 km/h (5 Bft) 100,00 %
06.12.2019 23:14 7,8 C 6,7 C 6,1 C 96 % 1006,0 hPa 0,0 l/m 0 min 2 min 0 W/m 38,6 km/h (5 Bft) 100,00 %
06.12.2019 23:16 7,8 C 6,7 C 6,1 C 96 % 1005,8 hPa 0,0 l/m 0 min 2 min 0 W/m 35,4 km/h (5 Bft) 97,87 %
06.12.2019 23:18 7,9 C 6,7 C 6,1 C 96 % 1005,9 hPa 0,0 l/m 0 min 2 min 0 W/m 32,2 km/h (5 Bft) 100,00 %
06.12.2019 23:20 7,9 C 6,7 C 6,1 C 96 % 1005,9 hPa 0,0 l/m 0 min 2 min 0 W/m 25,7 km/h (4 Bft) 100,00 %
06.12.2019 23:22 7,9 C 6,7 C 6,1 C 96 % 1005,9 hPa 0,0 l/m 0 min 2 min 0 W/m 29,0 km/h (5 Bft) 97,87 %
06.12.2019 23:24 7,9 C 6,7 C 6,1 C 96 % 1006,0 hPa 0,0 l/m 0 min 0 min 0 W/m 25,7 km/h (4 Bft) 100,00 %
06.12.2019 23:26 7,9 C 6,7 C 6,1 C 96 % 1006,3 hPa 0,0 l/m 0 min 2 min 0 W/m 25,7 km/h (4 Bft) 100,00 %
06.12.2019 23:28 7,9 C 6,7 C 6,1 C 97 % 1006,0 hPa 0,0 l/m 0 min 2 min 0 W/m 22,5 km/h (4 Bft) 100,00 %
06.12.2019 23:30 7,9 C 7,2 C 6,1 C 96 % 1006,0 hPa 0,0 l/m 0 min 0 min 0 W/m 22,5 km/h (4 Bft) 100,00 %
06.12.2019 23:32 8,0 C 7,2 C 6,7 C 96 % 1005,8 hPa 0,0 l/m 0 min 0 min 0 W/m 48,3 km/h (6 Bft) 100,00 %
06.12.2019 23:34 8,1 C 7,2 C 6,7 C 97 % 1005,9 hPa 0,0 l/m 0 min 0 min 0 W/m 41,8 km/h (6 Bft) 100,00 %
06.12.2019 23:36 8,1 C 7,2 C 6,7 C 97 % 1006,0 hPa 0,0 l/m 0 min 2 min 0 W/m 22,5 km/h (4 Bft) 51,22 %
06.12.2019 23:38 8,1 C 7,2 C 6,7 C 97 % 1006,1 hPa 0,0 l/m 0 min 2 min 0 W/m 35,4 km/h (5 Bft) 100,00 %
06.12.2019 23:40 8,1 C 6,7 C 6,7 C 97 % 1005,9 hPa 0,0 l/m 0 min 2 min 0 W/m 35,4 km/h (5 Bft) 100,00 %
06.12.2019 23:42 8,1 C 6,7 C 6,1 C 97 % 1005,9 hPa 0,0 l/m 0 min 2 min 0 W/m 38,6 km/h (5 Bft) 97,83 %
06.12.2019 23:44 8,2 C 6,7 C 6,1 C 97 % 1005,9 hPa 0,2 l/m 0 min 2 min 0 W/m 38,6 km/h (5 Bft) 100,00 %
06.12.2019 23:46 8,2 C 6,7 C 6,1 C 97 % 1006,1 hPa 0,0 l/m 0 min 2 min 0 W/m 35,4 km/h (5 Bft) 100,00 %
06.12.2019 23:48 8,2 C 6,7 C 6,1 C 97 % 1006,0 hPa 0,0 l/m 0 min 2 min 0 W/m 35,4 km/h (5 Bft) 100,00 %
06.12.2019 23:50 8,2 C 6,7 C 6,1 C 97 % 1006,0 hPa 0,0 l/m 0 min 2 min 0 W/m 25,7 km/h (4 Bft) 100,00 %
06.12.2019 23:52 8,2 C 6,7 C 6,1 C 97 % 1006,0 hPa 0,0 l/m 0 min 2 min 0 W/m 35,4 km/h (5 Bft) 100,00 %
06.12.2019 23:54 8,2 C 7,2 C 6,1 C 97 % 1006,0 hPa 0,0 l/m 0 min 2 min 0 W/m 29,0 km/h (5 Bft) 97,83 %
06.12.2019 23:56 8,2 C 7,2 C 6,1 C 97 % 1006,1 hPa 0,0 l/m 0 min 2 min 0 W/m 29,0 km/h (5 Bft) 97,87 %
06.12.2019 23:58 8,2 C 7,2 C 6,1 C 97 % 1006,0 hPa 0,0 l/m 0 min 2 min 0 W/m 32,2 km/h (5 Bft) 97,87 %
_ Min-Zeit 00:40 00:00 00:00 08:54 22:20 - - - - 01:10 00:02
Minimum _ 0,4 C 0,0 C -0,6 C 91 % 1005,8 hPa - - - - 6,4 km/h (2 Bft) 9,52 %
_ Max-Zeit 23:44 23:30 23:32 12:30 00:02 09:32 00:00 18:08 12:14 21:54 00:07
Maximum _ 8,2 C 7,2 C 6,7 C 98 % 1018,8 hPa 0,2 l/m 0 min 4 min 34 W/m 54,7 km/h
S-SW (7 Bft)
100,00 %
Durchschnitt _ 4,2 C 3,4 C 2,8 C 95 % 1011,5 hPa #4,2 l/m #0 min. #9:44 h 16 W/m 22,6 km/h (4 Bft) 96,80 %
© 2019 W. Hausmann